GW3184 Weather Reports


time (UTC)temp
C
wind
direction
speed
KPH
gust
KPH
rain 1hr
cm
rain 24hr
cm
rain mn
cm
humidity
%
barometer
mb
20260508023657 7 220 0.0 1.6 0.00 0.00 0.00 63 1013.4
20260508023557 7 220 0.0 1.6 0.00 0.00 0.00 62 1013.4
20260508023457 7 220 0.0 1.6 0.00 0.00 0.00 63 1013.4
20260508023357 7 220 0.0 1.6 0.00 0.00 0.00 62 1013.4
20260508023256 7 220 0.0 1.6 0.00 0.00 0.00 63 1013.3
20260508023157 7 220 0.0 1.6 0.00 0.00 0.00 64 1013.3
20260508022957 7 220 0.0 1.6 0.00 0.00 0.00 62 1013.3
20260508022758 7 220 0.0 1.6 0.00 0.00 0.00 61 1013.4
20260508022657 7 220 0.0 1.6 0.00 0.00 0.00 61 1013.3
20260508022557 7 220 0.0 1.6 0.00 0.00 0.00 62 1013.3
20260508022458 7 220 0.0 1.6 0.00 0.00 0.00 62 1013.3
20260508022357 8 220 0.0 1.6 0.00 0.00 0.00 62 1013.3
20260508022257 8 220 0.0 1.6 0.00 0.00 0.00 63 1013.2
20260508022156 8 220 0.0 1.6 0.00 0.00 0.00 62 1013.3
20260508022058 8 220 0.0 1.6 0.00 0.00 0.00 64 1013.2
20260508021957 8 220 0.0 1.6 0.00 0.00 0.00 63 1013.2
20260508021858 8 220 0.0 1.6 0.00 0.00 0.00 61 1013.2
20260508021757 8 220 0.0 1.6 0.00 0.00 0.00 61 1013.2
20260508021657 8 220 0.0 0.0 0.00 0.00 0.00 61 1013.2
20260508021457 8 220 0.0 0.0 0.00 0.00 0.00 61 1013.1
20260508021357 8 220 0.0 0.0 0.00 0.00 0.00 61 1013.1
20260508021258 8 220 0.0 0.0 0.00 0.00 0.00 61 1013.1
20260508021158 8 220 0.0 0.0 0.00 0.00 0.00 60 1013.1
20260508021058 8 220 0.0 0.0 0.00 0.00 0.00 60 1013.1
20260508020958 8 220 0.0 0.0 0.00 0.00 0.00 60 1013.1
20260508020857 8 220 0.0 0.0 0.00 0.00 0.00 59 1013.1
20260508020757 8 220 0.0 0.0 0.00 0.00 0.00 60 1013.0
20260508020656 8 220 0.0 0.0 0.00 0.00 0.00 59 1013.0
20260508020557 8 220 0.0 0.0 0.00 0.00 0.00 59 1013.0
20260508020456 8 220 0.0 0.0 0.00 0.00 0.00 58 1013.0
20260508020357 8 220 0.0 0.0 0.00 0.00 0.00 58 1013.1
20260508020158 8 220 0.0 0.0 0.00 0.00 0.00 57 1012.9
20260508020057 8 220 0.0 0.0 0.00 0.00 0.00 57 1012.9
20260508015956 8 220 0.0 0.0 0.00 0.00 0.00 56 1013.0
20260508015856 8 220 0.0 0.0 0.00 0.00 0.00 55 1013.0
20260508015756 8 220 0.0 0.0 0.00 0.00 0.00 53 1012.8
20260508015557 9 220 0.0 1.6 0.00 0.00 0.00 53 1012.8
20260508015457 9 220 0.0 1.6 0.00 0.00 0.00 53 1012.9
20260508015357 9 220 0.0 1.6 0.00 0.00 0.00 52 1012.8
20260508015256 9 220 0.0 1.6 0.00 0.00 0.00 52 1012.8
20260508015156 9 220 0.0 1.6 0.00 0.00 0.00 52 1012.9
20260508015056 9 220 0.0 1.6 0.00 0.00 0.00 52 1012.8
20260508014956 9 220 0.0 1.6 0.00 0.00 0.00 52 1012.8
20260508014856 9 220 0.0 1.6 0.00 0.00 0.00 52 1012.8
20260508014756 9 220 1.6 1.6 0.00 0.00 0.00 52 1012.7
20260508014556 9 220 0.0 1.6 0.00 0.00 0.00 52 1012.7
20260508014457 10 220 0.0 1.6 0.00 0.00 0.00 52 1012.8
20260508014256 10 220 1.6 1.6 0.00 0.00 0.00 51 1012.8
20260508014156 10 220 0.0 1.6 0.00 0.00 0.00 52 1012.8
20260508014057 10 220 0.0 1.6 0.00 0.00 0.00 51 1012.7
20260508013957 10 220 0.0 1.6 0.00 0.00 0.00 50 1012.7
20260508013857 10 220 0.0 1.6 0.00 0.00 0.00 50 1012.8
20260508013757 10 220 0.0 1.6 0.00 0.00 0.00 51 1012.7
20260508013656 10 220 0.0 3.2 0.00 0.00 0.00 50 1012.7
20260508013556 10 220 0.0 3.2 0.00 0.00 0.00 49 1012.7
20260508013456 10 220 0.0 3.2 0.00 0.00 0.00 49 1012.6
20260508013356 10 220 0.0 3.2 0.00 0.00 0.00 50 1012.6
20260508013257 10 220 1.6 3.2 0.00 0.00 0.00 49 1012.6
20260508013156 10 220 0.0 3.2 0.00 0.00 0.00 49 1012.6
20260508013056 10 220 0.0 3.2 0.00 0.00 0.00 49 1012.6
20260508012956 10 220 0.0 3.2 0.00 0.00 0.00 49 1012.6
20260508012856 10 220 1.6 3.2 0.00 0.00 0.00 49 1012.6
20260508012756 10 260 0.0 1.6 0.00 0.00 0.00 50 1012.7
20260508012656 10 260 0.0 1.6 0.00 0.00 0.00 49 1012.6
20260508012556 10 260 0.0 1.6 0.00 0.00 0.00 50 1012.5
20260508012456 10 260 0.0 3.2 0.00 0.00 0.00 49 1012.5
20260508012356 10 260 0.0 3.2 0.00 0.00 0.00 49 1012.5
20260508012256 10 259 0.0 3.2 0.00 0.00 0.00 49 1012.4
20260508012156 10 259 0.0 3.2 0.00 0.00 0.00 49 1012.5
20260508011957 10 259 0.0 3.2 0.00 0.00 0.00 49 1012.5
20260508011856 10 259 0.0 3.2 0.00 0.00 0.00 49 1012.5
20260508011555 10 269 1.6 1.6 0.00 0.00 0.00 49 1012.3
20260508011456 10 237 1.6 1.6 0.00 0.00 0.00 49 1012.4
20260508011356 10 172 1.6 1.6 0.00 0.00 0.00 50 1012.4
20260508011155 10 172 0.0 3.2 0.00 0.00 0.00 49 1012.3
20260508011056 10 172 0.0 8.0 0.00 0.00 0.00 48 1012.4
20260508010956 10 172 0.0 8.0 0.00 0.00 0.00 49 1012.3
20260508010856 11 172 0.0 8.0 0.00 0.00 0.00 49 1012.4
20260508010756 11 172 0.0 8.0 0.00 0.00 0.00 48 1012.3
20260508010656 11 172 0.0 8.0 0.00 0.00 0.00 48 1012.2
20260508010556 11 172 0.0 8.0 0.00 0.00 0.00 48 1012.3
20260508010455 11 171 1.6 8.0 0.00 0.00 0.00 47 1012.3
20260508010356 11 344 0.0 8.0 0.00 0.00 0.00 48 1012.3
20260508010256 11 344 0.0 8.0 0.00 0.00 0.00 48 1012.3
20260508010157 11 340 8.0 8.0 0.00 0.00 0.00 47 1012.3
20260508010056 11 109 1.6 8.0 0.00 0.00 0.00 48 1012.2
20260508005957 11 17 0.0 8.0 0.00 0.00 0.00 48 1012.2
20260508005858 11 17 1.6 8.0 0.00 0.00 0.00 47 1012.2
20260508005758 11 51 3.2 8.0 0.00 0.00 0.00 47 1012.3
20260508005656 11 248 1.6 8.0 0.00 0.00 0.00 48 1012.2
20260508005556 11 257 1.6 8.0 0.00 0.00 0.00 48 1012.1
20260508005456 11 257 0.0 8.0 0.00 0.00 0.00 48 1012.2
20260508005357 11 248 1.6 8.0 0.00 0.00 0.00 47 1012.2
20260508005256 11 221 1.6 6.4 0.00 0.00 0.00 48 1012.1
20260508005157 11 250 0.0 6.4 0.00 0.00 0.00 49 1012.2
20260508005058 11 250 0.0 6.4 0.00 0.00 0.00 48 1012.3
20260508004957 11 250 1.6 6.4 0.00 0.00 0.00 48 1012.2
20260508004857 11 250 3.2 6.4 0.00 0.00 0.00 48 1012.2
20260508004759 11 302 3.2 4.8 0.00 0.00 0.00 49 1012.1
20260508004657 11 342 1.6 4.8 0.00 0.00 0.00 48 1012.1
20260508004558 11 233 0.0 3.2 0.00 0.00 0.00 48 1012.1
20260508004457 11 229 1.6 3.2 0.00 0.00 0.00 48 1012.1
20260508004358 11 235 1.6 3.2 0.00 0.00 0.00 48 1012.0
20260508004257 11 235 1.6 3.2 0.00 0.00 0.00 47 1012.0
20260508004057 11 229 0.0 3.2 0.00 0.00 0.00 47 1012.0
20260508003957 11 249 0.0 3.2 0.00 0.00 0.00 47 1012.1
20260508003857 11 260 3.2 3.2 0.00 0.00 0.00 47 1012.1
20260508003757 11 222 0.0 3.2 0.00 0.00 0.00 47 1012.0
20260508003657 11 222 0.0 3.2 0.00 0.00 0.00 47 1012.1
20260508003558 11 222 1.6 4.8 0.00 0.00 0.00 46 1012.0
20260508003456 11 231 1.6 4.8 0.00 0.00 0.00 46 1011.9
20260508003357 11 266 1.6 4.8 0.00 0.00 0.00 48 1012.0
20260508003258 11 223 0.0 4.8 0.00 0.00 0.00 47 1011.9
20260508003157 11 259 1.6 4.8 0.00 0.00 0.00 47 1011.9
20260508003057 11 266 1.6 4.8 0.00 0.00 0.00 48 1011.9
20260508002957 12 288 1.6 4.8 0.00 0.00 0.00 47 1011.8
20260508002856 12 267 1.6 4.8 0.00 0.00 0.00 47 1011.8
20260508002457 12 236 1.6 6.4 0.00 0.00 0.00 48 1011.8
20260508002258 12 261 1.6 6.4 0.00 0.00 0.00 47 1011.8
20260508002158 12 258 1.6 6.4 0.00 0.00 0.00 47 1011.7
20260508002057 12 234 4.8 6.4 0.00 0.00 0.00 47 1011.8
20260508001957 12 244 1.6 6.4 0.00 0.00 0.00 47 1011.8
20260508001858 12 178 1.6 4.8 0.00 0.00 0.00 47 1011.6
20260508001758 12 178 0.0 4.8 0.00 0.00 0.00 46 1011.6
20260508001657 12 213 0.0 4.8 0.00 0.00 0.00 46 1011.6
20260508001557 12 213 0.0 4.8 0.00 0.00 0.00 46 1011.6
20260508001457 12 252 1.6 4.8 0.00 0.00 0.00 46 1011.6
20260508001357 12 248 1.6 4.8 0.00 0.00 0.00 46 1011.6
20260508001257 12 273 1.6 4.8 0.00 0.00 0.00 46 1011.6
20260508001158 12 273 1.6 4.8 0.00 0.00 0.00 46 1011.6
20260508001056 12 273 1.6 4.8 0.00 0.00 0.00 46 1011.5
20260508000957 12 246 1.6 4.8 0.00 0.00 0.00 46 1011.5
20260508000657 12 336 3.2 4.8 0.00 0.00 0.00 46 1011.4
20260508000557 12 287 1.6 11.3 0.00 0.00 0.00 44 1011.4
20260508000458 12 267 3.2 11.3 0.00 0.00 0.00 44 1011.3
20260508000358 12 248 4.8 11.3 0.00 0.00 0.00 46 1011.2
20260508000257 12 24 0.0 11.3 0.00 0.00 0.00 45 1011.3
20260508000056 12 136 1.6 11.3 0.00 0.00 0.00 45 1011.3
20260507235855 12 266 1.6 11.3 0.00 0.00 0.00 45 1011.2
20260507235756 12 330 6.4 11.3 0.00 0.00 0.00 44 1011.2
20260507235655 12 277 1.6 12.9 0.00 0.00 0.00 44 1011.3
20260507235456 12 288 3.2 12.9 0.00 0.00 0.00 44 1011.1
20260507235356 12 346 3.2 12.9 0.00 0.00 0.00 45 1011.2
20260507235256 12 287 1.6 12.9 0.00 0.00 0.00 44 1011.2
20260507235056 13 269 1.6 12.9 0.00 0.00 0.00 45 1011.1
20260507234958 13 264 1.6 12.9 0.00 0.00 0.00 44 1011.2
20260507234856 13 234 1.6 12.9 0.00 0.00 0.00 44 1011.2
20260507234756 13 271 1.6 6.4 0.00 0.00 0.00 44 1011.2
20260507234656 13 266 1.6 8.0 0.00 0.00 0.00 43 1011.2
20260507234557 13 249 3.2 8.0 0.00 0.00 0.00 43 1011.1
20260507234456 13 261 3.2 8.0 0.00 0.00 0.00 43 1011.1
20260507234257 13 244 1.6 8.0 0.00 0.00 0.00 42 1011.1
20260507234156 13 169 3.2 8.0 0.00 0.00 0.00 44 1011.1
20260507234056 13 343 3.2 8.0 0.00 0.00 0.00 43 1011.1
20260507233957 13 277 1.6 8.0 0.00 0.00 0.00 42 1011.1
20260507233757 13 292 3.2 8.0 0.00 0.00 0.00 43 1011.0
20260507233657 13 273 0.0 8.0 0.00 0.00 0.00 43 1011.0
20260507233556 13 317 3.2 8.0 0.00 0.00 0.00 44 1011.0
20260507233456 13 293 3.2 8.0 0.00 0.00 0.00 44 1011.1
20260507233356 13 247 6.4 8.0 0.00 0.00 0.00 44 1011.0
20260507233256 13 347 4.8 4.8 0.00 0.00 0.00 42 1011.0
20260507233156 13 285 4.8 4.8 0.00 0.00 0.00 44 1011.0
20260507233056 13 261 3.2 4.8 0.00 0.00 0.00 44 1011.0
20260507232956 13 338 3.2 4.8 0.00 0.00 0.00 43 1011.0
20260507232855 13 317 1.6 4.8 0.00 0.00 0.00 43 1011.0
20260507232757 13 275 1.6 4.8 0.00 0.00 0.00 44 1011.0
20260507232556 13 306 1.6 4.8 0.00 0.00 0.00 43 1010.9
20260507232457 13 270 3.2 4.8 0.00 0.00 0.00 43 1010.9
20260507232357 13 161 0.0 4.8 0.00 0.00 0.00 42 1010.9
20260507232256 13 215 3.2 4.8 0.00 0.00 0.00 42 1010.9
20260507232057 13 224 0.0 4.8 0.00 0.00 0.00 44 1010.9
20260507231856 13 259 1.6 8.0 0.00 0.00 0.00 42 1010.8
20260507231756 13 221 3.2 12.9 0.00 0.00 0.00 43 1010.8
20260507231657 13 330 1.6 12.9 0.00 0.00 0.00 42 1010.7
20260507231556 13 250 4.8 12.9 0.00 0.00 0.00 43 1010.8
20260507231456 13 324 1.6 12.9 0.00 0.00 0.00 42 1010.8
20260507231256 13 355 1.6 12.9 0.00 0.00 0.00 42 1010.7
20260507231056 13 305 1.6 12.9 0.00 0.00 0.00 40 1010.7
20260507230955 13 250 8.0 12.9 0.00 0.00 0.00 41 1010.8
20260507230856 13 307 3.2 11.3 0.00 0.00 0.00 42 1010.7
20260507230657 13 274 1.6 11.3 0.00 0.00 0.00 41 1010.7
20260507230556 13 279 3.2 11.3 0.00 0.00 0.00 42 1010.7
20260507230456 13 233 3.2 11.3 0.00 0.00 0.00 41 1010.7
20260507230356 14 238 3.2 11.3 0.00 0.00 0.00 41 1010.7
20260507230156 14 144 1.6 6.4 0.00 0.00 0.00 42 1010.8
20260507230056 14 301 1.6 4.8 0.00 0.00 0.00 41 1010.6
20260507225956 14 259 4.8 6.4 0.00 0.00 0.00 41 1010.7
20260507225756 14 178 3.2 8.0 0.00 0.00 0.00 40 1010.5
20260507225656 14 355 1.6 8.0 0.00 0.00 0.00 41 1010.6
20260507225556 14 279 3.2 8.0 0.00 0.00 0.00 41 1010.6
20260507225456 14 281 0.0 8.0 0.00 0.00 0.00 40 1010.6
20260507225356 14 110 1.6 8.0 0.00 0.00 0.00 40 1010.7
20260507225157 14 204 3.2 8.0 0.00 0.00 0.00 40 1010.6
20260507224956 14 288 1.6 12.9 0.00 0.00 0.00 40 1010.6
20260507224856 14 282 3.2 12.9 0.00 0.00 0.00 40 1010.5
20260507224757 14 261 3.2 12.9 0.00 0.00 0.00 40 1010.5
20260507224557 14 315 3.2 12.9 0.00 0.00 0.00 39 1010.4
20260507224455 14 313 4.8 12.9 0.00 0.00 0.00 40 1010.4
20260507224356 14 253 1.6 12.9 0.00 0.00 0.00 39 1010.5
20260507224257 14 266 4.8 12.9 0.00 0.00 0.00 40 1010.5
20260507224156 14 300 3.2 6.4 0.00 0.00 0.00 40 1010.5
20260507224056 14 329 3.2 6.4 0.00 0.00 0.00 40 1010.5
20260507223956 14 267 3.2 6.4 0.00 0.00 0.00 41 1010.4
20260507223655 14 266 1.6 6.4 0.00 0.00 0.00 40 1010.4
20260507223555 15 260 3.2 6.4 0.00 0.00 0.00 40 1010.4
20260507223456 15 311 3.2 6.4 0.00 0.00 0.00 39 1010.3
20260507223355 15 265 4.8 6.4 0.00 0.00 0.00 39 1010.4
20260507223257 15 235 4.8 6.4 0.00 0.00 0.00 40 1010.4
20260507223156 14 157 1.6 4.8 0.00 0.00 0.00 43 1010.4
20260507223056 14 255 1.6 6.4 0.00 0.00 0.00 44 1010.3
20260507222956 14 216 1.6 6.4 0.00 0.00 0.00 42 1010.4
20260507222755 14 241 1.6 8.0 0.00 0.00 0.00 41 1010.2
20260507222656 15 238 1.6 8.0 0.00 0.00 0.00 39 1010.4
20260507222557 15 267 1.6 8.0 0.00 0.00 0.00 41 1010.3
20260507222456 15 229 3.2 8.0 0.00 0.00 0.00 40 1010.4
20260507222255 15 336 1.6 8.0 0.00 0.00 0.00 39 1010.4
20260507222156 15 279 6.4 8.0 0.00 0.00 0.00 41 1010.4
20260507222056 15 209 1.6 8.0 0.00 0.00 0.00 40 1010.3
20260507221956 15 188 6.4 8.0 0.00 0.00 0.00 39 1010.3
20260507221855 15 254 3.2 8.0 0.00 0.00 0.00 40 1010.4
20260507221756 15 263 3.2 8.0 0.00 0.00 0.00 39 1010.3
20260507221656 15 300 4.8 8.0 0.00 0.00 0.00 40 1010.3
20260507221556 15 247 1.6 8.0 0.00 0.00 0.00 40 1010.2
20260507221256 15 189 4.8 9.7 0.00 0.00 0.00 40 1010.2
20260507221156 15 338 3.2 9.7 0.00 0.00 0.00 41 1010.3
20260507221056 15 252 1.6 9.7 0.00 0.00 0.00 38 1010.2
20260507220955 14 175 1.6 11.3 0.00 0.00 0.00 40 1010.2
20260507220856 14 311 3.2 11.3 0.00 0.00 0.00 40 1010.2
20260507220756 14 255 3.2 11.3 0.00 0.00 0.00 43 1010.2
20260507220657 15 247 1.6 11.3 0.00 0.00 0.00 42 1010.2
20260507220556 15 278 3.2 11.3 0.00 0.00 0.00 42 1010.2
20260507220457 15 250 3.2 11.3 0.00 0.00 0.00 38 1010.0
20260507220357 15 216 4.8 11.3 0.00 0.00 0.00 39 1010.1
20260507220255 15 249 3.2 11.3 0.00 0.00 0.00 40 1010.0
20260507220156 15 216 3.2 12.9 0.00 0.00 0.00 40 1009.9
20260507215959 15 273 1.6 8.0 0.00 0.00 0.00 39 1009.9
20260507215855 15 270 3.2 8.0 0.00 0.00 0.00 40 1009.9
20260507215756 15 174 3.2 8.0 0.00 0.00 0.00 38 1009.8
20260507215656 15 346 3.2 8.0 0.00 0.00 0.00 39 1009.9
20260507215457 15 296 1.6 9.7 0.00 0.00 0.00 39 1010.0
20260507215257 15 288 3.2 9.7 0.00 0.00 0.00 40 1009.9
20260507215155 15 327 3.2 9.7 0.00 0.00 0.00 39 1009.8
20260507215056 15 12 3.2 9.7 0.00 0.00 0.00 38 1009.9
20260507214956 15 261 3.2 9.7 0.00 0.00 0.00 38 1009.8
20260507214856 15 174 0.0 9.7 0.00 0.00 0.00 39 1009.9
20260507214757 15 255 1.6 9.7 0.00 0.00 0.00 37 1009.9
20260507214555 15 323 4.8 6.4 0.00 0.00 0.00 38 1009.9
20260507214456 15 302 1.6 6.4 0.00 0.00 0.00 38 1009.9
20260507214355 16 247 3.2 6.4 0.00 0.00 0.00 37 1010.0
20260507214256 16 151 3.2 6.4 0.00 0.00 0.00 40 1009.9
20260507214156 16 236 1.6 6.4 0.00 0.00 0.00 41 1009.9
20260507214055 16 215 3.2 6.4 0.00 0.00 0.00 39 1010.0
20260507213856 16 54 1.6 4.8 0.00 0.00 0.00 39 1009.9
20260507213756 16 227 1.6 4.8 0.00 0.00 0.00 40 1009.9
20260507213456 15 327 1.6 4.8 0.00 0.00 0.00 40 1009.9
20260507213356 15 277 1.6 6.4 0.00 0.00 0.00 43 1009.8
20260507213157 15 279 1.6 6.4 0.00 0.00 0.00 41 1009.8
20260507213056 15 280 1.6 6.4 0.00 0.00 0.00 39 1009.8
20260507212956 15 333 1.6 6.4 0.00 0.00 0.00 39 1009.8
20260507212756 15 310 3.2 8.0 0.00 0.00 0.00 38 1009.8
20260507212657 15 271 1.6 8.0 0.00 0.00 0.00 38 1009.8
20260507212555 15 228 3.2 8.0 0.00 0.00 0.00 38 1009.7
20260507212455 15 170 6.4 8.0 0.00 0.00 0.00 39 1009.7
20260507212355 15 164 1.6 8.0 0.00 0.00 0.00 38 1009.7
20260507212255 15 68 3.2 8.0 0.00 0.00 0.00 38 1009.7
20260507212156 15 14 1.6 8.0 0.00 0.00 0.00 38 1009.8
20260507212056 15 351 1.6 8.0 0.00 0.00 0.00 38 1009.8
20260507211956 15 261 1.6 8.0 0.00 0.00 0.00 40 1009.8
20260507211856 15 205 4.8 6.4 0.00 0.00 0.00 37 1009.9
20260507211757 15 267 1.6 6.4 0.00 0.00 0.00 37 1009.8
20260507211557 15 327 3.2 8.0 0.00 0.00 0.00 38 1009.9
20260507211456 15 338 3.2 8.0 0.00 0.00 0.00 37 1009.9
20260507211357 15 281 3.2 8.0 0.00 0.00 0.00 37 1009.9
20260507211256 15 281 4.8 8.0 0.00 0.00 0.00 39 1009.8
20260507211156 15 267 3.2 8.0 0.00 0.00 0.00 36 1009.8
20260507211056 15 311 6.4 8.0 0.00 0.00 0.00 37 1009.8
20260507210956 15 15 3.2 8.0 0.00 0.00 0.00 36 1009.8
20260507210857 16 244 1.6 8.0 0.00 0.00 0.00 36 1009.7
20260507210756 16 230 3.2 6.4 0.00 0.00 0.00 37 1009.8
20260507210555 16 202 4.8 8.0 0.00 0.00 0.00 39 1009.7
20260507210456 16 202 1.6 17.7 0.00 0.00 0.00 37 1009.7
20260507210355 16 238 6.4 17.7 0.00 0.00 0.00 40 1009.7
20260507210256 16 219 3.2 17.7 0.00 0.00 0.00 37 1009.7
20260507210056 16 254 3.2 17.7 0.00 0.00 0.00 39 1009.7
20260507205955 16 229 3.2 17.7 0.00 0.00 0.00 39 1009.7
20260507205856 16 209 1.6 17.7 0.00 0.00 0.00 38 1009.8
20260507205657 16 240 1.6 8.0 0.00 0.00 0.00 37 1009.7
20260507205556 15 254 3.2 6.4 0.00 0.00 0.00 44 1009.6
20260507205455 15 313 0.0 6.4 0.00 0.00 0.00 41 1009.7
20260507205356 15 313 0.0 6.4 0.00 0.00 0.00 39 1009.6
20260507205256 15 286 1.6 11.3 0.00 0.00 0.00 40 1009.6
20260507205156 15 286 1.6 11.3 0.00 0.00 0.00 36 1009.6
20260507205056 15 167 4.8 11.3 0.00 0.00 0.00 37 1009.7
20260507204956 15 292 3.2 11.3 0.00 0.00 0.00 37 1009.6
20260507204855 15 299 3.2 11.3 0.00 0.00 0.00 36 1009.6
20260507204656 15 278 4.8 11.3 0.00 0.00 0.00 37 1009.6
20260507204556 15 292 1.6 11.3 0.00 0.00 0.00 36 1009.6
20260507204456 16 186 8.0 9.7 0.00 0.00 0.00 36 1009.6
20260507204357 16 355 1.6 8.0 0.00 0.00 0.00 40 1009.6
20260507204156 16 238 1.6 8.0 0.00 0.00 0.00 43 1009.7
20260507204057 16 325 1.6 9.7 0.00 0.00 0.00 36 1009.7
20260507203956 16 215 3.2 9.7 0.00 0.00 0.00 36 1009.6
20260507203856 16 279 3.2 9.7 0.00 0.00 0.00 38 1009.6
20260507203756 16 253 1.6 9.7 0.00 0.00 0.00 35 1009.7
20260507203656 16 325 4.8 9.7 0.00 0.00 0.00 40 1009.7
20260507203555 16 292 1.6 11.3 0.00 0.00 0.00 40 1009.6
20260507203456 16 261 1.6 11.3 0.00 0.00 0.00 39 1009.7
20260507203357 16 48 4.8 11.3 0.00 0.00 0.00 36 1009.6
20260507203155 16 102 3.2 11.3 0.00 0.00 0.00 38 1009.6
20260507203057 16 314 1.6 16.1 0.00 0.00 0.00 37 1009.5
20260507202956 16 334 4.8 16.1 0.00 0.00 0.00 39 1009.6
20260507202855 16 266 1.6 16.1 0.00 0.00 0.00 39 1009.6
20260507202656 15 256 6.4 16.1 0.00 0.00 0.00 35 1009.6
20260507202556 15 155 3.2 16.1 0.00 0.00 0.00 36 1009.6
20260507202458 16 75 3.2 16.1 0.00 0.00 0.00 39 1009.6
20260507202357 16 224 4.8 16.1 0.00 0.00 0.00 38 1009.7
20260507202257 16 46 3.2 16.1 0.00 0.00 0.00 40 1009.8
20260507202156 16 225 4.8 14.5 0.00 0.00 0.00 36 1009.6
20260507202056 16 30 1.6 14.5 0.00 0.00 0.00 39 1009.7
20260507201955 16 249 1.6 14.5 0.00 0.00 0.00 40 1009.7
20260507201857 16 300 1.6 14.5 0.00 0.00 0.00 36 1009.7
20260507201756 16 141 0.0 14.5 0.00 0.00 0.00 36 1009.7
20260507201656 16 166 4.8 14.5 0.00 0.00 0.00 35 1009.7
20260507201455 17 168 3.2 14.5 0.00 0.00 0.00 41 1009.7
20260507201356 17 250 1.6 4.8 0.00 0.00 0.00 41 1009.7
20260507201256 17 267 3.2 6.4 0.00 0.00 0.00 36 1009.7
20260507201056 16 180 3.2 6.4 0.00 0.00 0.00 38 1009.6
20260507200957 16 333 1.6 6.4 0.00 0.00 0.00 38 1009.7
20260507200857 16 284 1.6 14.5 0.00 0.00 0.00 46 1009.7
20260507200757 16 217 1.6 14.5 0.00 0.00 0.00 44 1009.7
20260507200656 16 269 1.6 14.5 0.00 0.00 0.00 38 1009.7
20260507200556 16 236 1.6 14.5 0.00 0.00 0.00 41 1009.7
20260507200457 16 246 3.2 14.5 0.00 0.00 0.00 39 1009.7
20260507200357 16 222 3.2 14.5 0.00 0.00 0.00 42 1009.7
20260507200256 15 199 4.8 14.5 0.00 0.00 0.00 39 1009.8
20260507200155 15 314 1.6 14.5 0.00 0.00 0.00 38 1009.8
20260507200056 15 165 11.3 14.5 0.00 0.00 0.00 38 1009.8
20260507195957 15 197 4.8 12.9 0.00 0.00 0.00 41 1009.9
20260507195857 16 220 8.0 12.9 0.00 0.00 0.00 38 1009.9
20260507195656 16 198 3.2 11.3 0.00 0.00 0.00 39 1010.0
20260507195455 16 174 3.2 11.3 0.00 0.00 0.00 36 1009.9
20260507195356 16 236 4.8 11.3 0.00 0.00 0.00 38 1009.9
20260507195256 16 265 3.2 11.3 0.00 0.00 0.00 37 1009.9
20260507195155 16 271 3.2 11.3 0.00 0.00 0.00 38 1009.9
20260507195056 16 239 1.6 11.3 0.00 0.00 0.00 37 1009.8
20260507194856 16 198 8.0 11.3 0.00 0.00 0.00 37 1009.9
20260507194756 16 211 4.8 12.9 0.00 0.00 0.00 39 1009.8
20260507194656 16 274 1.6 16.1 0.00 0.00 0.00 40 1009.9
20260507194557 16 261 1.6 16.1 0.00 0.00 0.00 37 1010.0
20260507194457 16 257 3.2 16.1 0.00 0.00 0.00 40 1010.0
20260507194356 16 225 0.0 16.1 0.00 0.00 0.00 37 1010.0
20260507194255 16 263 1.6 16.1 0.00 0.00 0.00 36 1010.1
20260507194157 16 209 4.8 16.1 0.00 0.00 0.00 37 1010.1
20260507194056 16 281 4.8 16.1 0.00 0.00 0.00 36 1010.1
20260507193956 17 248 3.2 16.1 0.00 0.00 0.00 36 1010.1
20260507193756 17 228 6.4 16.1 0.00 0.00 0.00 39 1010.0
20260507193656 16 257 4.8 12.9 0.00 0.00 0.00 44 1010.1
20260507193557 16 257 3.2 11.3 0.00 0.00 0.00 43 1010.0
20260507193455 15 291 1.6 11.3 0.00 0.00 0.00 39 1010.1
20260507193356 15 205 4.8 11.3 0.00 0.00 0.00 38 1010.1
20260507193256 15 268 3.2 11.3 0.00 0.00 0.00 38 1010.1
20260507193157 15 256 1.6 16.1 0.00 0.00 0.00 36 1010.1
20260507193057 16 257 4.8 16.1 0.00 0.00 0.00 35 1010.1
20260507192955 16 230 8.0 16.1 0.00 0.00 0.00 35 1010.1
20260507192857 16 208 8.0 16.1 0.00 0.00 0.00 35 1010.0
20260507192756 16 264 6.4 16.1 0.00 0.00 0.00 35 1010.1
20260507192656 17 113 6.4 16.1 0.00 0.00 0.00 39 1009.9
20260507192556 17 290 4.8 16.1 0.00 0.00 0.00 37 1010.0
20260507192457 17 176 4.8 16.1 0.00 0.00 0.00 36 1010.1
20260507192357 17 165 11.3 19.3 0.00 0.00 0.00 38 1010.1
20260507192255 17 223 4.8 16.1 0.00 0.00 0.00 37 1010.1
20260507192156 17 217 6.4 16.1 0.00 0.00 0.00 40 1010.1
20260507192056 17 173 3.2 16.1 0.00 0.00 0.00 36 1010.1
20260507191956 17 270 6.4 16.1 0.00 0.00 0.00 43 1010.1
20260507191855 17 296 1.6 16.1 0.00 0.00 0.00 38 1010.1
20260507191757 16 188 3.2 14.5 0.00 0.00 0.00 39 1010.1
20260507191656 16 271 4.8 14.5 0.00 0.00 0.00 39 1010.1
20260507191556 16 281 3.2 14.5 0.00 0.00 0.00 41 1010.1
20260507191456 16 5 1.6 14.5 0.00 0.00 0.00 39 1010.1
20260507191355 16 246 4.8 14.5 0.00 0.00 0.00 38 1010.2
20260507191255 16 236 4.8 14.5 0.00 0.00 0.00 39 1010.2
20260507191056 16 255 6.4 16.1 0.00 0.00 0.00 39 1010.2
20260507190956 16 220 3.2 16.1 0.00 0.00 0.00 40 1010.1
20260507190856 16 206 4.8 16.1 0.00 0.00 0.00 41 1010.2
20260507190757 16 221 1.6 16.1 0.00 0.00 0.00 38 1010.1
20260507190655 16 169 8.0 16.1 0.00 0.00 0.00 44 1010.1
20260507190556 16 246 1.6 16.1 0.00 0.00 0.00 41 1010.2
20260507190356 16 236 9.7 16.1 0.00 0.00 0.00 38 1010.2
20260507190256 16 195 14.5 14.5 0.00 0.00 0.00 38 1010.2
20260507190156 16 269 9.7 12.9 0.00 0.00 0.00 38 1010.1
20260507190056 16 255 3.2 12.9 0.00 0.00 0.00 44 1010.2
20260507185956 16 181 3.2 9.7 0.00 0.00 0.00 44 1010.2
20260507185856 16 251 1.6 9.7 0.00 0.00 0.00 42 1010.2
20260507185657 15 330 3.2 9.7 0.00 0.00 0.00 38 1010.2
20260507185555 15 303 3.2 9.7 0.00 0.00 0.00 41 1010.2
20260507185456 15 269 3.2 9.7 0.00 0.00 0.00 43 1010.3
20260507185355 15 346 1.6 9.7 0.00 0.00 0.00 42 1010.2
20260507185257 15 209 6.4 9.7 0.00 0.00 0.00 39 1010.2
20260507185056 15 150 1.6 6.4 0.00 0.00 0.00 40 1010.3
20260507184957 15 215 1.6 6.4 0.00 0.00 0.00 41 1010.3
20260507184856 15 33 1.6 6.4 0.00 0.00 0.00 40 1010.3
20260507184755 16 163 1.6 6.4 0.00 0.00 0.00 40 1010.3
20260507184655 16 240 1.6 6.4 0.00 0.00 0.00 43 1010.4
20260507184458 16 296 1.6 12.9 0.00 0.00 0.00 47 1010.3
20260507184256 15 294 4.8 14.5 0.00 0.00 0.00 42 1010.4
20260507184156 15 273 3.2 14.5 0.00 0.00 0.00 46 1010.4
20260507184057 15 225 3.2 14.5 0.00 0.00 0.00 40 1010.4
20260507183956 16 249 3.2 14.5 0.00 0.00 0.00 42 1010.4
20260507183855 16 230 1.6 14.5 0.00 0.00 0.00 45 1010.4
20260507183557 16 229 9.7 14.5 0.00 0.00 0.00 43 1010.5
20260507183457 16 192 3.2 12.9 0.00 0.00 0.00 46 1010.4
20260507183357 16 184 3.2 12.9 0.00 0.00 0.00 42 1010.4
20260507183256 16 275 4.8 12.9 0.00 0.00 0.00 42 1010.4
20260507183156 16 205 4.8 12.9 0.00 0.00 0.00 43 1010.4
20260507183055 16 209 4.8 12.9 0.00 0.00 0.00 41 1010.4
20260507182957 16 188 4.8 12.9 0.00 0.00 0.00 41 1010.4
20260507182856 17 200 6.4 12.9 0.00 0.00 0.00 44 1010.4
20260507182755 16 215 3.2 12.9 0.00 0.00 0.00 42 1010.4
20260507182655 16 191 11.3 12.9 0.00 0.00 0.00 42 1010.4
20260507182556 16 281 3.2 12.9 0.00 0.00 0.00 43 1010.4
20260507182457 16 283 3.2 12.9 0.00 0.00 0.00 48 1010.4
20260507182355 16 236 1.6 12.9 0.00 0.00 0.00 46 1010.4
20260507182256 16 220 3.2 12.9 0.00 0.00 0.00 40 1010.4
20260507182056 16 146 3.2 14.5 0.00 0.00 0.00 39 1010.5
20260507181956 16 146 1.6 14.5 0.00 0.00 0.00 40 1010.4
20260507181857 16 220 3.2 14.5 0.00 0.00 0.00 42 1010.5
20260507181756 16 243 1.6 14.5 0.00 0.00 0.00 48 1010.5
20260507181456 16 250 3.2 14.5 0.00 0.00 0.00 45 1010.5
20260507181355 16 322 3.2 14.5 0.00 0.00 0.00 39 1010.5
20260507181156 16 190 6.4 14.5 0.00 0.00 0.00 45 1010.4
20260507181056 16 230 9.7 12.9 0.00 0.00 0.00 46 1010.4
20260507180955 16 222 8.0 12.9 0.00 0.00 0.00 43 1010.5
20260507180756 16 232 4.8 11.3 0.00 0.00 0.00 43 1010.6
20260507180656 16 207 3.2 11.3 0.00 0.00 0.00 45 1010.6
20260507180456 16 177 6.4 11.3 0.00 0.00 0.00 42 1010.5
20260507180356 16 198 3.2 12.9 0.00 0.00 0.00 42 1010.5
20260507180257 16 247 0.0 12.9 0.00 0.00 0.00 42 1010.5
20260507180157 17 126 3.2 12.9 0.00 0.00 0.00 40 1010.5
20260507180056 17 234 8.0 12.9 0.00 0.00 0.00 48 1010.5
20260507175958 17 248 4.8 12.9 0.00 0.00 0.00 45 1010.5
20260507175755 16 298 4.8 16.1 0.00 0.00 0.00 45 1010.6
20260507175656 16 234 6.4 16.1 0.00 0.00 0.00 43 1010.6
20260507175556 16 224 4.8 16.1 0.00 0.00 0.00 42 1010.6
20260507175456 16 208 11.3 16.1 0.00 0.00 0.00 42 1010.6
20260507175357 16 161 14.5 16.1 0.00 0.00 0.00 43 1010.6
20260507175257 16 172 3.2 16.1 0.00 0.00 0.00 49 1010.6
20260507175156 16 268 1.6 16.1 0.00 0.00 0.00 41 1010.7
20260507175056 16 265 3.2 16.1 0.00 0.00 0.00 40 1010.7
20260507174955 16 223 4.8 16.1 0.00 0.00 0.00 41 1010.8
20260507174855 16 240 9.7 12.9 0.00 0.00 0.00 46 1010.9
20260507174755 16 244 4.8 12.9 0.00 0.00 0.00 42 1010.8
20260507174656 16 222 3.2 11.3 0.00 0.00 0.00 49 1010.7
20260507174556 16 63 3.2 11.3 0.00 0.00 0.00 47 1010.8
20260507174456 16 250 1.6 11.3 0.00 0.00 0.00 51 1010.8
20260507174257 15 92 3.2 11.3 0.00 0.00 0.00 50 1010.9
20260507174156 15 285 1.6 11.3 0.00 0.00 0.00 42 1010.9
20260507173956 16 229 4.8 14.5 0.00 0.00 0.00 48 1010.9
20260507173855 16 232 6.4 14.5 0.00 0.00 0.00 46 1011.0
20260507173756 16 251 4.8 14.5 0.00 0.00 0.00 46 1010.9
20260507173656 15 184 4.8 24.1 0.00 0.00 0.00 50 1010.9
20260507173556 15 144 3.2 24.1 0.00 0.00 0.00 45 1010.9
20260507173456 15 192 3.2 24.1 0.00 0.00 0.00 43 1010.9
20260507173257 16 216 9.7 24.1 0.00 0.00 0.00 45 1011.0
20260507173156 16 275 9.7 24.1 0.00 0.00 0.00 52 1011.0
20260507173057 15 211 6.4 24.1 0.00 0.00 0.00 49 1011.0
20260507172956 15 250 4.8 24.1 0.00 0.00 0.00 44 1010.9
20260507172856 15 222 14.5 24.1 0.00 0.00 0.00 45 1010.9
20260507172656 15 248 3.2 11.3 0.00 0.00 0.00 48 1010.9
20260507172557 15 215 4.8 11.3 0.00 0.00 0.00 44 1011.0
20260507172456 15 219 4.8 11.3 0.00 0.00 0.00 49 1011.1
20260507172355 15 244 6.4 8.0 0.00 0.00 0.00 47 1011.0
20260507172257 15 192 4.8 6.4 0.00 0.00 0.00 52 1011.1
20260507172155 14 189 1.6 6.4 0.00 0.00 0.00 50 1011.0
20260507172056 14 228 4.8 6.4 0.00 0.00 0.00 53 1011.0
20260507171956 13 336 1.6 4.8 0.00 0.00 0.00 45 1011.1
20260507171856 14 342 1.6 4.8 0.00 0.00 0.00 45 1011.2
20260507171756 14 355 1.6 4.8 0.00 0.00 0.00 47 1011.1
20260507171657 15 349 1.6 4.8 0.00 0.00 0.00 46 1011.2
20260507171556 15 317 3.2 6.4 0.00 0.00 0.00 45 1011.3
20260507171455 15 293 1.6 6.4 0.00 0.00 0.00 46 1011.3
20260507171355 15 284 1.6 6.4 0.00 0.00 0.00 50 1011.3
20260507171256 15 277 1.6 6.4 0.00 0.00 0.00 49 1011.3
20260507171056 15 300 1.6 9.7 0.00 0.00 0.00 52 1011.3
20260507170956 15 301 3.2 9.7 0.00 0.00 0.00 47 1011.3
20260507170858 15 269 0.0 9.7 0.00 0.00 0.00 51 1011.3
20260507170556 14 231 3.2 9.7 0.00 0.00 0.00 53 1011.3
20260507170457 14 242 3.2 9.7 0.00 0.00 0.00 50 1011.3
20260507170356 13 205 4.8 9.7 0.00 0.00 0.00 47 1011.4
20260507170255 14 178 4.8 9.7 0.00 0.00 0.00 49 1011.4
20260507170155 14 201 1.6 9.7 0.00 0.00 0.00 49 1011.5
20260507170056 14 267 1.6 9.7 0.00 0.00 0.00 46 1011.4
20260507165955 15 281 4.8 9.7 0.00 0.00 0.00 45 1011.5
20260507165855 15 240 8.0 9.7 0.00 0.00 0.00 46 1011.4
20260507165755 15 254 11.3 11.3 0.00 0.00 0.00 57 1011.4
20260507165655 15 250 1.6 11.3 0.00 0.00 0.00 56 1011.5
20260507165555 14 273 3.2 11.3 0.00 0.00 0.00 53 1011.4
20260507165456 14 236 3.2 11.3 0.00 0.00 0.00 50 1011.5
20260507165355 13 243 3.2 11.3 0.00 0.00 0.00 50 1011.4
20260507165254 13 257 1.6 11.3 0.00 0.00 0.00 47 1011.4
20260507165154 14 255 1.6 11.3 0.00 0.00 0.00 45 1011.4
20260507165054 14 231 4.8 11.3 0.00 0.00 0.00 44 1011.5
20260507164955 15 197 6.4 11.3 0.00 0.00 0.00 47 1011.4
20260507164855 15 222 3.2 11.3 0.00 0.00 0.00 47 1011.4
20260507164655 14 263 1.6 12.9 0.00 0.00 0.00 51 1011.4
20260507164556 14 190 4.8 12.9 0.00 0.00 0.00 47 1011.4
20260507164455 13 252 3.2 12.9 0.00 0.00 0.00 50 1011.5
20260507164355 13 214 1.6 12.9 0.00 0.00 0.00 46 1011.5
20260507164257 13 241 4.8 12.9 0.00 0.00 0.00 47 1011.5
20260507164155 14 159 3.2 12.9 0.00 0.00 0.00 46 1011.6
20260507163756 14 188 3.2 12.9 0.00 0.00 0.00 47 1011.5
20260507163654 14 248 3.2 14.5 0.00 0.00 0.00 46 1011.5
20260507163355 14 261 12.9 16.1 0.00 0.00 0.00 50 1011.6
20260507163155 14 225 8.0 16.1 0.00 0.00 0.00 48 1011.6
20260507163057 14 277 3.2 16.1 0.00 0.00 0.00 46 1011.6
20260507162955 15 248 1.6 16.1 0.00 0.00 0.00 44 1011.6
20260507162855 15 244 4.8 16.1 0.00 0.00 0.00 44 1011.6
20260507162755 15 227 9.7 16.1 0.00 0.00 0.00 46 1011.6
20260507162655 15 280 1.6 16.1 0.00 0.00 0.00 45 1011.5
20260507162455 16 155 6.4 9.7 0.00 0.00 0.00 46 1011.5
20260507162355 16 248 3.2 11.3 0.00 0.00 0.00 44 1011.6
20260507162255 16 157 8.0 11.3 0.00 0.00 0.00 47 1011.6
20260507162155 16 275 3.2 11.3 0.00 0.00 0.00 46 1011.6
20260507162054 16 205 6.4 14.5 0.00 0.00 0.00 46 1011.6
20260507161954 16 144 3.2 14.5 0.00 0.00 0.00 47 1011.5
20260507161856 16 255 4.8 14.5 0.00 0.00 0.00 47 1011.6
20260507161755 16 139 3.2 14.5 0.00 0.00 0.00 44 1011.6
20260507161655 16 187 6.4 19.3 0.00 0.00 0.00 45 1011.6
20260507161454 15 229 9.7 19.3 0.00 0.00 0.00 48 1011.6
20260507161355 15 257 3.2 19.3 0.00 0.00 0.00 46 1011.7
20260507161254 15 219 1.6 19.3 0.00 0.00 0.00 44 1011.6
20260507161155 15 194 6.4 19.3 0.00 0.00 0.00 42 1011.7
20260507160955 15 188 1.6 19.3 0.00 0.00 0.00 49 1011.6
20260507160854 15 265 6.4 19.3 0.00 0.00 0.00 44 1011.6
20260507160655 15 190 6.4 16.1 0.00 0.00 0.00 45 1011.6
20260507160455 14 211 6.4 16.1 0.00 0.00 0.00 51 1011.7
20260507160355 13 242 1.6 16.1 0.00 0.00 0.00 52 1011.7
20260507160254 13 271 3.2 16.1 0.00 0.00 0.00 43 1011.7
20260507160156 13 161 6.4 16.1 0.00 0.00 0.00 42 1011.8
20260507155957 14 194 9.7 16.1 0.00 0.00 0.00 46 1011.7
20260507155855 15 271 3.2 16.1 0.00 0.00 0.00 43 1011.8
20260507155756 15 196 9.7 17.7 0.00 0.00 0.00 46 1011.7
20260507155656 15 198 4.8 12.9 0.00 0.00 0.00 49 1011.7
20260507155557 15 199 8.0 11.3 0.00 0.00 0.00 42 1011.8
20260507155456 15 99 6.4 12.9 0.00 0.00 0.00 53 1011.8
20260507155356 14 217 4.8 11.3 0.00 0.00 0.00 52 1011.8
20260507155258 14 202 1.6 11.3 0.00 0.00 0.00 52 1011.8
20260507155057 13 208 0.0 11.3 0.00 0.00 0.00 50 1011.8
20260507154956 13 172 4.8 11.3 0.00 0.00 0.00 46 1011.8
20260507154855 13 190 4.8 14.5 0.00 0.00 0.00 48 1011.8
20260507154755 13 206 3.2 14.5 0.00 0.00 0.00 46 1011.8
20260507154556 13 160 6.4 14.5 0.00 0.00 0.00 46 1011.8
20260507154356 13 103 1.6 14.5 0.00 0.00 0.00 46 1011.9
20260507154256 13 266 0.0 14.5 0.00 0.00 0.00 45 1011.9
20260507154157 13 251 1.6 14.5 0.00 0.00 0.00 46 1011.9
20260507153956 13 229 3.2 8.0 0.00 0.00 0.00 48 1012.0
20260507153856 13 259 1.6 8.0 0.00 0.00 0.00 47 1011.9
20260507153756 13 355 0.0 8.0 0.00 0.00 0.00 45 1011.9
20260507153656 14 179 4.8 8.0 0.00 0.00 0.00 51 1011.9
20260507153556 14 103 1.6 8.0 0.00 0.00 0.00 44 1012.0
20260507153355 15 268 3.2 11.3 0.00 0.00 0.00 43 1011.9
20260507153155 14 266 1.6 12.9 0.00 0.00 0.00 58 1012.0
20260507153057 14 215 1.6 12.9 0.00 0.00 0.00 52 1012.0
20260507152957 13 311 1.6 12.9 0.00 0.00 0.00 53 1012.0
20260507152756 13 283 3.2 12.9 0.00 0.00 0.00 49 1012.0
20260507152657 13 242 3.2 14.5 0.00 0.00 0.00 49 1012.0
20260507152558 13 223 4.8 14.5 0.00 0.00 0.00 48 1012.0
20260507152455 13 260 1.6 14.5 0.00 0.00 0.00 47 1012.1
20260507152256 13 217 1.6 14.5 0.00 0.00 0.00 48 1012.0
20260507152055 13 321 1.6 14.5 0.00 0.00 0.00 49 1012.1
20260507151956 13 302 3.2 14.5 0.00 0.00 0.00 47 1012.1
20260507151856 13 192 14.5 14.5 0.00 0.00 0.00 55 1012.1
20260507151757 13 185 4.8 12.9 0.00 0.00 0.00 49 1012.2
20260507151656 13 186 3.2 12.9 0.00 0.00 0.00 50 1012.1
20260507151456 13 196 9.7 12.9 0.00 0.00 0.00 49 1012.2
20260507151355 13 183 1.6 11.3 0.00 0.00 0.00 48 1012.2
20260507151156 13 220 8.0 8.0 0.00 0.00 0.00 51 1012.2
20260507150958 13 235 3.2 8.0 0.00 0.00 0.00 53 1012.3
20260507150856 12 262 3.2 6.4 0.00 0.00 0.00 53 1012.3
20260507150756 12 212 1.6 6.4 0.00 0.00 0.00 53 1012.3
20260507150657 12 225 3.2 9.7 0.00 0.00 0.00 51 1012.3
20260507150555 12 248 1.6 11.3 0.00 0.00 0.00 50 1012.3
20260507150356 13 323 3.2 11.3 0.00 0.00 0.00 49 1012.3
20260507150257 13 192 1.6 11.3 0.00 0.00 0.00 49 1012.3
20260507150155 13 174 0.0 11.3 0.00 0.00 0.00 50 1012.4
20260507150057 13 316 1.6 11.3 0.00 0.00 0.00 48 1012.4
20260507145955 13 292 4.8 11.3 0.00 0.00 0.00 48 1012.3
20260507145854 13 313 3.2 11.3 0.00 0.00 0.00 46 1012.4
20260507145756 13 201 8.0 11.3 0.00 0.00 0.00 47 1012.3
20260507145655 13 246 3.2 11.3 0.00 0.00 0.00 47 1012.3
20260507145556 13 220 6.4 11.3 0.00 0.00 0.00 49 1012.3
20260507145455 13 174 8.0 11.3 0.00 0.00 0.00 46 1012.3
20260507145354 13 224 1.6 11.3 0.00 0.00 0.00 49 1012.3
20260507145155 13 178 1.6 11.3 0.00 0.00 0.00 53 1012.5
20260507145054 13 198 6.4 11.3 0.00 0.00 0.00 53 1012.5
20260507144954 13 269 4.8 11.3 0.00 0.00 0.00 52 1012.5
20260507144855 13 259 3.2 11.3 0.00 0.00 0.00 51 1012.5
20260507144655 13 321 4.8 11.3 0.00 0.00 0.00 51 1012.6
20260507144555 12 216 6.4 11.3 0.00 0.00 0.00 48 1012.6
20260507144456 12 207 3.2 11.3 0.00 0.00 0.00 50 1012.5
20260507144354 12 257 1.6 11.3 0.00 0.00 0.00 49 1012.5
20260507144255 13 266 3.2 9.7 0.00 0.00 0.00 51 1012.6
20260507144154 13 242 4.8 9.7 0.00 0.00 0.00 52 1012.6
20260507144054 13 238 3.2 9.7 0.00 0.00 0.00 52 1012.6
20260507143954 13 229 4.8 9.7 0.00 0.00 0.00 49 1012.7
20260507143855 13 262 3.2 9.7 0.00 0.00 0.00 49 1012.6
20260507143655 13 244 3.2 12.9 0.00 0.00 0.00 47 1012.7
20260507143555 13 270 6.4 12.9 0.00 0.00 0.00 52 1012.6
20260507143455 13 182 4.8 12.9 0.00 0.00 0.00 48 1012.6
20260507143355 13 213 4.8 14.5 0.00 0.00 0.00 50 1012.7
20260507143255 13 290 1.6 14.5 0.00 0.00 0.00 48 1012.7
20260507143156 13 311 1.6 14.5 0.00 0.00 0.00 49 1012.7
20260507143055 13 223 3.2 14.5 0.00 0.00 0.00 48 1012.6
20260507142955 13 266 4.8 14.5 0.00 0.00 0.00 49 1012.7
20260507142856 13 260 3.2 14.5 0.00 0.00 0.00 55 1012.7
20260507142755 12 240 1.6 14.5 0.00 0.00 0.00 51 1012.8
20260507142655 13 219 6.4 14.5 0.00 0.00 0.00 51 1012.7
20260507142555 13 215 1.6 14.5 0.00 0.00 0.00 52 1012.7
20260507142455 13 277 1.6 8.0 0.00 0.00 0.00 53 1012.7
20260507142354 13 248 3.2 8.0 0.00 0.00 0.00 57 1012.7
20260507142256 12 298 3.2 8.0 0.00 0.00 0.00 49 1012.7
20260507142154 13 317 8.0 11.3 0.00 0.00 0.00 51 1012.8
20260507141955 12 248 0.0 11.3 0.00 0.00 0.00 55 1012.8
20260507141855 12 166 4.8 11.3 0.00 0.00 0.00 52 1012.8
20260507141755 12 190 4.8 11.3 0.00 0.00 0.00 55 1012.9
20260507141655 12 221 1.6 11.3 0.00 0.00 0.00 52 1013.0
20260507141555 12 165 6.4 11.3 0.00 0.00 0.00 51 1013.0
20260507141455 12 136 4.8 11.3 0.00 0.00 0.00 54 1012.9
20260507141355 12 300 8.0 11.3 0.00 0.00 0.00 53 1012.8
20260507141255 12 203 9.7 11.3 0.00 0.00 0.00 58 1012.9
20260507141155 12 256 1.6 8.0 0.00 0.00 0.00 55 1013.0
20260507140854 12 322 3.2 8.0 0.00 0.00 0.00 53 1013.1
20260507140755 12 323 3.2 8.0 0.00 0.00 0.00 52 1013.1
20260507140654 12 227 3.2 8.0 0.00 0.00 0.00 53 1013.0
20260507140554 12 243 6.4 8.0 0.00 0.00 0.00 54 1013.1
20260507140355 12 267 1.6 6.4 0.00 0.00 0.00 57 1013.1
20260507140156 12 258 3.2 6.4 0.00 0.00 0.00 57 1013.2
20260507140056 12 355 3.2 6.4 0.00 0.00 0.00 55 1013.1
20260507135954 12 213 3.2 12.9 0.00 0.03 0.00 57 1013.2
20260507135855 12 190 4.8 12.9 0.00 0.03 0.00 53 1013.2
20260507135654 12 36 1.6 12.9 0.00 0.03 0.00 55 1013.3
20260507135556 12 268 3.2 12.9 0.00 0.03 0.00 54 1013.2
20260507135454 12 307 0.0 12.9 0.00 0.03 0.00 53 1013.3
20260507135356 12 157 1.6 12.9 0.00 0.03 0.00 53 1013.3
20260507135157 12 188 6.4 12.9 0.00 0.03 0.00 56 1013.3
20260507135055 12 196 1.6 4.8 0.00 0.03 0.00 60 1013.3
20260507134954 12 229 3.2 4.8 0.00 0.03 0.00 59 1013.3
20260507134856 12 290 1.6 4.8 0.00 0.03 0.00 58 1013.4
20260507134754 12 282 0.0 4.8 0.00 0.03 0.00 59 1013.3
20260507134655 12 57 0.0 4.8 0.00 0.03 0.00 59 1013.3
20260507134555 11 40 1.6 4.8 0.00 0.03 0.00 61 1013.4
20260507134355 11 138 0.0 4.8 0.00 0.03 0.00 57 1013.3
20260507134155 11 170 0.0 4.8 0.00 0.03 0.00 57 1013.4
20260507134055 12 173 1.6 4.8 0.00 0.03 0.00 60 1013.4
20260507133955 12 209 1.6 4.8 0.00 0.03 0.00 62 1013.4
20260507133855 12 236 3.2 4.8 0.00 0.03 0.00 64 1013.3
20260507133754 12 192 3.2 4.8 0.00 0.03 0.00 63 1013.3
20260507133654 11 207 0.0 4.8 0.00 0.03 0.00 62 1013.3
20260507133555 11 201 0.0 4.8 0.00 0.03 0.00 64 1013.3
20260507133455 11 201 0.0 4.8 0.00 0.03 0.00 63 1013.3
20260507133355 11 173 1.6 6.4 0.00 0.03 0.00 61 1013.4
20260507133254 11 98 1.6 6.4 0.00 0.03 0.00 60 1013.3
20260507133054 11 110 1.6 6.4 0.00 0.03 0.00 59 1013.4
20260507132955 11 134 1.6 6.4 0.00 0.03 0.00 60 1013.4
20260507132855 11 156 1.6 6.4 0.00 0.03 0.00 66 1013.4
20260507132755 11 165 1.6 8.0 0.00 0.03 0.00 68 1013.5
20260507132655 11 136 0.0 8.0 0.00 0.03 0.00 66 1013.5
20260507132554 11 207 3.2 8.0 0.00 0.03 0.00 65 1013.4
20260507132455 10 173 4.8 8.0 0.00 0.03 0.00 68 1013.5
20260507132255 10 200 1.6 8.0 0.00 0.03 0.00 66 1013.5
20260507132055 10 158 0.0 8.0 0.00 0.03 0.00 66 1013.5
20260507131954 10 175 3.2 8.0 0.00 0.03 0.00 66 1013.5
20260507131855 10 213 1.6 6.4 0.00 0.03 0.00 65 1013.6
20260507131654 10 203 3.2 6.4 0.00 0.03 0.00 67 1013.6
20260507131556 10 227 1.6 6.4 0.00 0.03 0.00 68 1013.6
20260507131254 10 99 1.6 6.4 0.00 0.03 0.00 70 1013.6
20260507131055 10 194 4.8 6.4 0.00 0.03 0.00 69 1013.7
20260507130954 10 119 1.6 6.4 0.00 0.03 0.00 69 1013.7
20260507130755 10 174 4.8 6.4 0.00 0.03 0.00 69 1013.7
20260507130655 10 159 1.6 4.8 0.00 0.03 0.00 72 1013.6
20260507130557 10 191 3.2 4.8 0.00 0.03 0.00 71 1013.7
20260507130454 10 143 0.0 4.8 0.00 0.03 0.00 71 1013.6
20260507130354 10 109 1.6 4.8 0.00 0.03 0.00 72 1013.6
20260507130255 10 138 0.0 4.8 0.00 0.03 0.00 72 1013.5
20260507130155 10 137 0.0 4.8 0.00 0.03 0.00 74 1013.6
20260507130054 10 267 0.0 4.8 0.00 0.03 0.00 75 1013.6
20260507125854 9 267 1.6 4.8 0.00 0.10 0.00 74 1013.6
20260507125754 9 167 4.8 4.8 0.00 0.10 0.00 74 1013.6
20260507125654 9 193 1.6 4.8 0.00 0.10 0.00 75 1013.6
20260507125555 9 210 3.2 4.8 0.00 0.10 0.00 75 1013.6
20260507125355 9 231 1.6 8.0 0.00 0.10 0.00 77 1013.7
20260507125255 8 225 0.0 8.0 0.00 0.10 0.00 76 1013.6
20260507125154 8 220 3.2 8.0 0.00 0.10 0.00 77 1013.6
20260507125055 8 198 3.2 8.0 0.00 0.10 0.00 76 1013.6
20260507124954 8 202 1.6 8.0 0.00 0.10 0.00 76 1013.6
20260507124755 8 207 4.8 8.0 0.00 0.10 0.00 77 1013.6
20260507124554 8 182 6.4 8.0 0.00 0.10 0.00 78 1013.6
20260507124454 8 182 3.2 4.8 0.00 0.10 0.00 78 1013.7
20260507124355 8 115 0.0 4.8 0.00 0.10 0.00 79 1013.7
20260507124254 8 115 0.0 4.8 0.00 0.10 0.00 81 1013.7
20260507124155 8 115 0.0 4.8 0.00 0.10 0.00 79 1013.7
20260507123855 7 171 3.2 3.2 0.00 0.10 0.00 83 1013.7
20260507123655 7 161 1.6 1.6 0.00 0.10 0.00 82 1013.6
20260507123255 7 161 0.0 1.6 0.00 0.10 0.00 83 1013.7
20260507123155 7 161 0.0 1.6 0.00 0.10 0.00 83 1013.7
20260507123054 7 161 1.6 3.2 0.00 0.10 0.00 84 1013.7
20260507122955 7 161 1.6 3.2 0.00 0.10 0.00 84 1013.7
20260507122854 7 161 0.0 3.2 0.00 0.10 0.00 84 1013.6
20260507122755 7 143 0.0 3.2 0.00 0.10 0.00 84 1013.7
20260507122656 6 140 1.6 3.2 0.00 0.10 0.00 85 1013.7
20260507122555 6 134 0.0 3.2 0.00 0.10 0.00 85 1013.7
20260507122455 6 134 0.0 3.2 0.00 0.10 0.00 85 1013.6
20260507122355 6 134 1.6 3.2 0.00 0.10 0.00 86 1013.8
20260507122254 6 111 1.6 3.2 0.00 0.10 0.00 86 1013.7
20260507122155 6 99 1.6 3.2 0.00 0.10 0.00 86 1013.7
20260507122054 6 82 0.0 3.2 0.00 0.10 0.00 86 1013.8
20260507121955 6 82 0.0 3.2 0.00 0.10 0.00 86 1013.7
20260507121854 6 82 0.0 3.2 0.00 0.10 0.00 86 1013.7
20260507121755 6 82 1.6 3.2 0.00 0.10 0.00 87 1013.8
20260507121656 6 82 1.6 3.2 0.00 0.10 0.00 87 1013.7
20260507121554 6 82 1.6 3.2 0.00 0.10 0.00 87 1013.7
20260507121456 6 82 0.0 1.6 0.00 0.10 0.00 87 1013.8
20260507121355 6 82 1.6 1.6 0.00 0.10 0.00 88 1013.7
20260507121254 6 82 1.6 1.6 0.00 0.10 0.00 89 1013.7
20260507121155 6 82 0.0 1.6 0.00 0.10 0.00 89 1013.7
20260507120954 6 82 1.6 1.6 0.00 0.10 0.00 89 1013.7
20260507120855 5 82 0.0 1.6 0.00 0.10 0.00 90 1013.7
20260507120755 5 82 0.0 3.2 0.00 0.10 0.00 90 1013.7
20260507120654 5 82 0.0 3.2 0.00 0.10 0.00 90 1013.7
20260507120555 5 82 0.0 3.2 0.00 0.10 0.00 90 1013.8
20260507120455 5 82 0.0 3.2 0.00 0.10 0.00 90 1013.7
20260507120355 5 82 1.6 3.2 0.00 0.10 0.00 91 1013.7
20260507120254 5 82 0.0 3.2 0.00 0.10 0.00 91 1013.6
20260507120155 5 82 1.6 3.2 0.00 0.10 0.00 91 1013.7
20260507120055 5 82 1.6 3.2 0.00 0.10 0.00 91 1013.8
20260507115956 5 82 1.6 3.2 0.00 0.18 0.00 91 1013.8
20260507115855 5 78 1.6 3.2 0.00 0.18 0.00 91 1013.8
20260507115755 5 38 0.0 1.6 0.00 0.18 0.00 91 1013.8
20260507115655 5 38 0.0 1.6 0.00 0.18 0.00 91 1013.7
20260507115554 5 38 1.6 1.6 0.00 0.18 0.00 91 1013.7
20260507115455 5 32 0.0 1.6 0.00 0.18 0.00 92 1013.7
20260507115356 5 32 1.6 1.6 0.00 0.18 0.00 91 1013.7
20260507115255 5 32 0.0 1.6 0.00 0.18 0.00 91 1013.7
20260507115154 5 32 1.6 1.6 0.00 0.18 0.00 92 1013.7
20260507115056 5 32 0.0 1.6 0.00 0.18 0.00 92 1013.7
20260507114854 4 12 0.0 1.6 0.00 0.18 0.00 92 1013.7
20260507114755 4 12 0.0 0.0 0.00 0.18 0.00 92 1013.7
20260507114654 4 12 0.0 0.0 0.00 0.18 0.00 92 1013.8
20260507114555 4 12 0.0 0.0 0.00 0.18 0.00 92 1013.7
20260507114455 4 12 0.0 0.0 0.00 0.18 0.00 93 1013.7
20260507114354 4 12 0.0 0.0 0.00 0.18 0.00 93 1013.7
20260507114255 4 12 0.0 0.0 0.00 0.18 0.00 93 1013.7
20260507114155 4 12 0.0 0.0 0.00 0.18 0.00 93 1013.7
20260507114054 4 12 0.0 0.0 0.00 0.18 0.00 93 1013.7
20260507113956 4 12 0.0 0.0 0.00 0.18 0.00 93 1013.7
20260507113855 4 12 0.0 0.0 0.00 0.18 0.00 93 1013.7
20260507113755 4 12 0.0 0.0 0.00 0.18 0.00 93 1013.6
20260507113656 3 12 0.0 1.6 0.00 0.18 0.00 93 1013.6
20260507113555 3 12 0.0 1.6 0.00 0.18 0.00 93 1013.7
20260507113454 3 12 0.0 1.6 0.00 0.18 0.00 93 1013.7
20260507113354 3 12 0.0 1.6 0.00 0.18 0.00 93 1013.7
20260507113255 3 12 0.0 1.6 0.00 0.18 0.00 93 1013.6
20260507113155 3 12 0.0 1.6 0.00 0.18 0.00 93 1013.6
20260507113055 3 12 0.0 1.6 0.00 0.18 0.00 93 1013.6
20260507112955 3 12 0.0 1.6 0.00 0.18 0.00 93 1013.6
20260507112854 3 12 1.6 1.6 0.00 0.18 0.00 93 1013.6
20260507112754 3 12 0.0 1.6 0.00 0.18 0.00 93 1013.5
20260507112655 3 12 0.0 0.0 0.00 0.18 0.00 93 1013.6
20260507112554 3 12 0.0 0.0 0.00 0.18 0.00 94 1013.5
20260507112455 3 12 0.0 0.0 0.00 0.18 0.00 94 1013.5
20260507112354 3 12 0.0 0.0 0.00 0.18 0.00 94 1013.5
20260507112255 3 12 0.0 0.0 0.00 0.18 0.00 93 1013.5
20260507112054 3 12 0.0 0.0 0.00 0.18 0.00 94 1013.4
20260507111955 3 12 0.0 0.0 0.00 0.18 0.00 94 1013.4
20260507111855 3 12 0.0 0.0 0.00 0.18 0.00 94 1013.3
20260507111755 3 12 0.0 0.0 0.00 0.18 0.00 94 1013.3
20260507111654 3 12 0.0 0.0 0.00 0.18 0.00 94 1013.4
20260507111556 3 12 0.0 0.0 0.00 0.18 0.00 94 1013.4
20260507111455 3 12 0.0 0.0 0.00 0.18 0.00 94 1013.3
20260507111256 3 12 0.0 0.0 0.00 0.18 0.00 94 1013.4
20260507111155 3 12 0.0 0.0 0.00 0.18 0.00 94 1013.4
20260507111055 3 12 0.0 0.0 0.00 0.18 0.00 94 1013.4
20260507110955 3 12 0.0 0.0 0.00 0.18 0.00 94 1013.5
20260507110755 3 12 0.0 0.0 0.00 0.18 0.00 94 1013.5
20260507110656 3 12 0.0 0.0 0.00 0.18 0.00 94 1013.5
20260507110554 3 12 0.0 0.0 0.00 0.18 0.00 94 1013.5
20260507110454 3 12 0.0 0.0 0.00 0.18 0.00 94 1013.5
20260507110354 3 12 0.0 0.0 0.00 0.18 0.00 94 1013.4
20260507110255 3 12 0.0 0.0 0.00 0.18 0.00 94 1013.4
20260507110155 2 12 0.0 0.0 0.00 0.18 0.00 94 1013.5
20260507110056 2 12 0.0 0.0 0.00 0.18 0.00 94 1013.5
20260507105856 2 12 0.0 0.0 0.00 0.41 0.00 94 1013.5
20260507105655 2 12 0.0 0.0 0.00 0.41 0.00 94 1013.5
20260507105555 2 12 0.0 0.0 0.00 0.41 0.00 94 1013.5
20260507105456 2 12 0.0 0.0 0.00 0.41 0.00 94 1013.4
20260507105355 2 12 0.0 0.0 0.00 0.41 0.00 94 1013.3
20260507105155 2 12 0.0 0.0 0.00 0.41 0.00 94 1013.3
20260507105055 2 12 0.0 0.0 0.00 0.41 0.00 94 1013.3
20260507104954 2 12 0.0 0.0 0.00 0.41 0.00 94 1013.3
20260507104855 2 12 0.0 0.0 0.00 0.41 0.00 94 1013.4
20260507104755 2 12 0.0 0.0 0.00 0.41 0.00 94 1013.3
20260507104655 2 12 0.0 0.0 0.00 0.41 0.00 94 1013.3
20260507104556 2 12 0.0 0.0 0.00 0.41 0.00 94 1013.2
20260507104454 2 12 0.0 0.0 0.00 0.41 0.00 94 1013.2
20260507104355 2 12 0.0 0.0 0.00 0.41 0.00 94 1013.2
20260507104055 2 12 0.0 0.0 0.00 0.41 0.00 94 1013.1
20260507103955 2 12 0.0 0.0 0.00 0.41 0.00 94 1013.1
20260507103855 2 12 0.0 0.0 0.00 0.41 0.00 94 1013.2
20260507103654 2 12 0.0 0.0 0.00 0.41 0.00 94 1013.1
20260507103555 2 12 0.0 0.0 0.00 0.41 0.00 94 1013.1
20260507103455 2 12 0.0 0.0 0.00 0.41 0.00 94 1013.0
20260507103355 2 12 0.0 0.0 0.00 0.41 0.00 94 1013.1
20260507103256 2 12 0.0 0.0 0.00 0.41 0.00 94 1013.0
20260507103154 2 12 0.0 0.0 0.00 0.41 0.00 94 1013.0
20260507103055 2 12 0.0 0.0 0.00 0.41 0.00 94 1013.0
20260507102954 2 12 0.0 0.0 0.00 0.41 0.00 94 1013.0
20260507102854 2 12 0.0 0.0 0.00 0.41 0.00 94 1012.9
20260507102756 2 12 0.0 0.0 0.00 0.41 0.00 94 1013.0
20260507102655 2 12 0.0 0.0 0.00 0.41 0.00 94 1013.0
20260507102555 2 12 0.0 0.0 0.00 0.41 0.00 94 1013.0
20260507102355 2 12 0.0 0.0 0.00 0.41 0.00 94 1013.0
20260507102255 2 12 0.0 0.0 0.00 0.41 0.00 94 1013.0
20260507102155 2 12 0.0 0.0 0.00 0.41 0.00 94 1012.9
20260507102054 2 12 0.0 0.0 0.00 0.41 0.00 94 1013.0
20260507101954 2 12 0.0 0.0 0.00 0.41 0.00 94 1012.9
20260507101856 2 12 0.0 0.0 0.00 0.41 0.00 94 1013.0
20260507101754 2 12 0.0 0.0 0.00 0.41 0.00 94 1013.1
20260507101556 2 12 0.0 0.0 0.00 0.41 0.00 94 1013.1
20260507101455 2 12 0.0 0.0 0.00 0.41 0.00 94 1013.1
20260507101354 2 12 0.0 0.0 0.00 0.41 0.00 94 1013.0
20260507101255 2 12 0.0 0.0 0.00 0.41 0.00 94 1013.1
20260507101155 2 12 0.0 0.0 0.00 0.41 0.00 94 1013.0
20260507101055 2 12 0.0 0.0 0.00 0.41 0.00 94 1013.0
20260507100954 2 12 0.0 0.0 0.00 0.41 0.00 94 1013.1
20260507100855 2 12 0.0 0.0 0.00 0.41 0.00 94 1013.0
20260507100755 2 12 0.0 0.0 0.00 0.41 0.00 94 1013.0
20260507100655 2 12 0.0 0.0 0.00 0.41 0.00 94 1013.0
20260507100454 2 12 0.0 0.0 0.00 0.41 0.00 93 1013.0
20260507100254 2 12 0.0 0.0 0.00 0.41 0.00 93 1013.0
20260507100054 2 12 0.0 0.0 0.00 0.41 0.00 93 1012.9
20260507095955 2 12 0.0 0.0 0.00 0.64 0.00 93 1012.9
20260507095856 2 12 0.0 0.0 0.00 0.64 0.00 94 1013.0
20260507095755 2 12 0.0 0.0 0.00 0.64 0.00 93 1012.9
20260507095655 2 12 0.0 0.0 0.00 0.64 0.00 93 1012.9
20260507095555 2 12 0.0 0.0 0.00 0.64 0.00 93 1013.0
20260507095455 2 12 0.0 0.0 0.00 0.64 0.00 93 1012.9
20260507095355 2 12 0.0 0.0 0.00 0.64 0.00 93 1012.9
20260507095155 2 12 0.0 0.0 0.00 0.64 0.00 93 1012.9
20260507095055 2 12 0.0 0.0 0.00 0.64 0.00 93 1012.9
20260507094955 2 12 0.0 0.0 0.00 0.64 0.00 93 1012.9
20260507094855 2 12 0.0 0.0 0.00 0.64 0.00 93 1012.9
20260507094754 2 12 0.0 0.0 0.00 0.64 0.00 93 1012.9
20260507094655 2 12 0.0 0.0 0.00 0.64 0.00 93 1012.9
20260507094453 2 12 0.0 0.0 0.00 0.64 0.00 93 1012.8
20260507094356 2 12 0.0 0.0 0.00 0.64 0.00 93 1012.8
20260507094055 2 12 0.0 0.0 0.00 0.64 0.00 93 1012.8
20260507093755 2 12 0.0 0.0 0.00 0.64 0.00 93 1012.8
20260507093655 2 12 0.0 0.0 0.00 0.64 0.00 93 1012.8
20260507093555 2 12 0.0 0.0 0.00 0.64 0.00 93 1012.8
20260507093355 2 12 0.0 0.0 0.00 0.64 0.00 93 1012.9
20260507093255 2 12 0.0 0.0 0.00 0.64 0.00 93 1012.9
20260507093154 2 12 0.0 0.0 0.00 0.64 0.00 93 1012.8
20260507093055 3 12 0.0 0.0 0.00 0.64 0.00 93 1012.8
20260507092855 3 12 0.0 0.0 0.00 0.64 0.00 93 1013.0
20260507092755 3 12 0.0 0.0 0.00 0.64 0.00 93 1012.9
20260507092654 3 12 0.0 0.0 0.00 0.64 0.00 93 1012.9
20260507092554 3 12 0.0 0.0 0.00 0.64 0.00 93 1013.0
20260507092455 3 12 0.0 0.0 0.00 0.64 0.00 93 1012.9
20260507092354 2 12 0.0 0.0 0.00 0.64 0.00 93 1013.0
20260507092255 2 12 0.0 0.0 0.00 0.64 0.00 93 1013.0
20260507092154 2 12 0.0 0.0 0.00 0.64 0.00 93 1012.9
20260507092055 2 12 0.0 0.0 0.00 0.64 0.00 93 1013.0
20260507091954 2 12 0.0 0.0 0.00 0.64 0.00 93 1013.0
20260507091854 2 12 0.0 0.0 0.00 0.64 0.00 93 1013.0
20260507091755 2 12 0.0 0.0 0.00 0.64 0.00 93 1013.1
20260507091555 2 12 0.0 0.0 0.00 0.64 0.00 93 1013.1
20260507091455 2 12 0.0 0.0 0.00 0.64 0.00 93 1013.1
20260507091356 2 12 0.0 0.0 0.00 0.64 0.00 93 1013.1
20260507091254 3 12 0.0 0.0 0.00 0.64 0.00 93 1013.0
20260507091155 2 12 0.0 0.0 0.00 0.64 0.00 93 1013.0
20260507091055 2 12 0.0 0.0 0.00 0.64 0.00 92 1013.1
20260507090956 2 12 0.0 0.0 0.00 0.64 0.00 93 1013.1
20260507090755 2 12 0.0 0.0 0.00 0.64 0.00 92 1013.2
20260507090654 2 12 0.0 0.0 0.00 0.64 0.00 92 1013.1
20260507090555 3 12 0.0 0.0 0.00 0.64 0.00 92 1013.0
20260507090455 3 12 0.0 0.0 0.00 0.64 0.00 92 1013.0
20260507090355 3 12 0.0 0.0 0.00 0.64 0.00 92 1013.1
20260507090254 3 12 0.0 0.0 0.00 0.64 0.00 92 1013.1
20260507090155 3 12 0.0 0.0 0.00 0.64 0.00 92 1013.0
20260507090054 3 12 0.0 0.0 0.00 0.64 0.00 92 1013.1
20260507085855 3 12 0.0 0.0 0.00 0.89 0.00 92 1013.0
20260507085754 3 12 0.0 0.0 0.00 0.89 0.00 92 1013.1
20260507085554 3 12 0.0 0.0 0.00 0.89 0.00 92 1013.1
20260507085455 3 12 0.0 0.0 0.00 0.89 0.00 92 1013.0
20260507085255 3 12 0.0 0.0 0.00 0.89 0.00 92 1013.0
20260507085155 3 12 0.0 0.0 0.00 0.89 0.00 92 1013.1
20260507084955 3 12 0.0 0.0 0.00 0.89 0.00 92 1013.0
20260507084856 3 12 0.0 0.0 0.00 0.89 0.00 92 1013.0
20260507084753 3 12 0.0 0.0 0.00 0.89 0.00 92 1013.0
20260507084654 3 12 0.0 0.0 0.00 0.89 0.00 92 1013.0
20260507084554 3 12 0.0 0.0 0.00 0.89 0.00 92 1013.0
20260507084455 3 12 0.0 0.0 0.00 0.89 0.00 92 1013.0
20260507084355 3 12 0.0 0.0 0.00 0.89 0.00 92 1013.1
20260507084055 3 12 0.0 0.0 0.00 0.89 0.00 92 1013.0
20260507083955 3 12 0.0 0.0 0.00 0.89 0.00 92 1013.1
20260507083854 3 12 0.0 0.0 0.00 0.89 0.00 92 1013.1
20260507083754 3 12 0.0 0.0 0.00 0.89 0.00 92 1013.0
20260507083654 3 12 0.0 0.0 0.00 0.89 0.00 92 1013.0
20260507083554 3 12 0.0 0.0 0.00 0.89 0.00 91 1013.0
20260507083454 3 12 0.0 0.0 0.00 0.89 0.00 91 1013.0
20260507083254 3 12 0.0 0.0 0.00 0.89 0.00 91 1013.0
20260507083154 3 12 0.0 0.0 0.00 0.89 0.00 91 1013.0
20260507083054 3 12 0.0 0.0 0.00 0.89 0.00 92 1013.1
20260507082955 3 12 0.0 0.0 0.00 0.89 0.00 92 1013.0
20260507082854 3 12 0.0 0.0 0.00 0.89 0.00 92 1013.0
20260507082654 3 12 0.0 0.0 0.00 0.89 0.00 91 1013.0
20260507082556 3 12 0.0 0.0 0.00 0.89 0.00 91 1013.0
20260507082455 3 12 0.0 0.0 0.00 0.89 0.00 91 1013.0
20260507082356 3 12 0.0 0.0 0.00 0.89 0.00 91 1013.0
20260507082254 3 12 0.0 0.0 0.00 0.89 0.00 91 1013.0
20260507082154 3 12 0.0 0.0 0.00 0.89 0.00 91 1013.0
20260507082054 3 12 0.0 0.0 0.00 0.89 0.00 91 1013.0
20260507081956 3 12 0.0 0.0 0.00 0.89 0.00 91 1013.0
20260507081854 3 12 0.0 0.0 0.00 0.89 0.00 91 1012.9
20260507081754 3 12 0.0 0.0 0.00 0.89 0.00 91 1013.0
20260507081654 3 12 0.0 0.0 0.00 0.89 0.00 91 1012.9
20260507081554 3 12 0.0 0.0 0.00 0.89 0.00 91 1013.0
20260507081454 3 12 0.0 0.0 0.00 0.89 0.00 91 1012.9
20260507081354 3 12 0.0 0.0 0.00 0.89 0.00 91 1013.0
20260507081155 3 12 0.0 0.0 0.00 0.89 0.00 91 1012.9
20260507081055 3 12 0.0 0.0 0.00 0.89 0.00 91 1012.9
20260507080956 3 12 0.0 0.0 0.00 0.89 0.00 91 1013.0
20260507080855 3 12 0.0 0.0 0.00 0.89 0.00 91 1012.9
20260507080656 3 12 0.0 0.0 0.00 0.89 0.00 91 1012.9
20260507080555 3 12 0.0 0.0 0.00 0.89 0.00 90 1013.0
20260507080355 4 12 0.0 0.0 0.00 0.89 0.00 91 1012.9
20260507080255 4 12 0.0 0.0 0.00 0.89 0.00 91 1013.0
20260507080155 4 12 0.0 0.0 0.00 0.89 0.00 91 1012.9
20260507080054 4 12 0.0 0.0 0.00 0.89 0.00 91 1013.0
20260507075957 4 12 0.0 0.0 0.00 0.89 0.00 91 1013.0
20260507075755 4 12 0.0 0.0 0.00 0.91 0.00 90 1012.9
20260507075655 4 12 0.0 0.0 0.00 0.91 0.00 90 1013.0
20260507075554 4 12 0.0 0.0 0.00 0.91 0.00 90 1013.1
20260507075456 4 12 0.0 0.0 0.00 0.91 0.00 90 1013.0
20260507075254 4 12 0.0 0.0 0.00 0.91 0.00 90 1013.1
20260507075155 4 12 0.0 0.0 0.00 0.91 0.00 90 1013.0
20260507075054 4 12 0.0 0.0 0.00 0.91 0.00 90 1013.0
20260507074955 4 12 0.0 0.0 0.00 0.91 0.00 90 1013.0
20260507074854 4 12 0.0 0.0 0.00 0.91 0.00 89 1013.0
20260507074754 4 12 0.0 0.0 0.00 0.91 0.00 89 1013.0
20260507074554 4 12 0.0 0.0 0.00 0.91 0.00 89 1013.0
20260507074454 4 12 0.0 0.0 0.00 0.91 0.00 89 1012.9
20260507074356 4 12 0.0 0.0 0.00 0.91 0.00 89 1013.0
20260507074255 4 12 0.0 0.0 0.00 0.91 0.00 89 1013.0
20260507074155 4 12 0.0 0.0 0.00 0.91 0.00 89 1013.0
20260507074055 4 12 0.0 0.0 0.00 0.91 0.00 88 1012.9
20260507073855 5 12 0.0 0.0 0.00 0.91 0.00 89 1013.1
20260507073755 5 12 0.0 0.0 0.00 0.91 0.00 88 1013.1
20260507073654 5 12 0.0 0.0 0.00 0.91 0.00 88 1013.0
20260507073554 5 12 0.0 1.6 0.00 0.91 0.00 88 1013.1
20260507073454 5 12 0.0 1.6 0.00 0.91 0.00 88 1013.0
20260507073355 5 12 0.0 1.6 0.00 0.91 0.00 88 1013.1
20260507073154 5 12 0.0 1.6 0.00 0.91 0.00 88 1013.0
20260507073055 5 12 0.0 1.6 0.00 0.91 0.00 87 1013.0
20260507072955 5 12 0.0 1.6 0.00 0.91 0.00 88 1013.0
20260507072854 5 12 0.0 1.6 0.00 0.91 0.00 88 1013.1
20260507072755 5 12 0.0 1.6 0.00 0.91 0.00 87 1013.0
20260507072654 5 12 0.0 1.6 0.00 0.91 0.00 87 1013.0
20260507072456 5 12 0.0 0.0 0.00 0.91 0.00 87 1013.0
20260507072256 5 12 0.0 0.0 0.00 0.91 0.00 87 1013.0
20260507072154 5 12 0.0 0.0 0.00 0.91 0.00 87 1013.0
20260507071855 5 12 0.0 0.0 0.00 0.91 0.00 86 1013.1
20260507071654 5 12 0.0 0.0 0.00 0.91 0.00 86 1013.0
20260507071553 5 12 0.0 0.0 0.00 0.91 0.00 86 1013.1
20260507071455 5 12 0.0 0.0 0.00 0.91 0.00 85 1013.1
20260507071354 5 12 0.0 0.0 0.00 0.91 0.00 85 1013.1
20260507071256 5 12 0.0 0.0 0.00 0.91 0.00 85 1013.0
20260507071154 5 12 0.0 0.0 0.00 0.91 0.00 85 1013.1
20260507071054 5 12 0.0 0.0 0.00 0.91 0.00 85 1013.1
20260507070955 5 12 0.0 0.0 0.00 0.91 0.00 85 1013.1
20260507070755 5 12 0.0 0.0 0.00 0.91 0.00 84 1013.1
20260507070655 5 12 0.0 0.0 0.00 0.91 0.00 85 1013.1
20260507070555 5 12 0.0 0.0 0.00 0.91 0.00 85 1013.1
20260507070454 5 12 0.0 0.0 0.00 0.91 0.00 85 1013.1
20260507070354 5 12 0.0 0.0 0.00 0.91 0.00 84 1013.0
20260507070253 5 12 0.0 0.0 0.00 0.91 0.00 84 1013.0
20260507070155 5 12 0.0 0.0 0.00 0.91 0.00 84 1013.1
20260507070055 5 12 0.0 0.0 0.00 0.91 0.00 83 1013.0
20260507065957 5 12 0.0 0.0 0.00 0.91 0.00 84 1013.0
20260507065754 5 12 0.0 0.0 0.00 1.02 0.00 84 1013.1
20260507065654 6 12 0.0 0.0 0.00 1.02 0.00 84 1013.1
20260507065556 6 12 0.0 1.6 0.00 1.02 0.00 84 1013.2
20260507065455 6 12 0.0 1.6 0.00 1.02 0.00 84 1013.2
20260507065354 6 12 0.0 1.6 0.00 1.02 0.00 84 1013.2
20260507065154 6 12 0.0 1.6 0.00 1.02 0.00 83 1013.3
20260507065055 6 12 0.0 1.6 0.00 1.02 0.00 83 1013.1
20260507064954 6 12 0.0 1.6 0.00 1.02 0.00 82 1013.2
20260507064855 6 12 0.0 1.6 0.00 1.02 0.00 82 1013.2
20260507064755 6 12 0.0 1.6 0.00 1.02 0.00 82 1013.2
20260507064654 6 12 0.0 1.6 0.00 1.02 0.00 82 1013.2
20260507064554 6 12 1.6 1.6 0.00 1.02 0.00 82 1013.1
20260507064455 6 12 0.0 1.6 0.00 1.02 0.00 82 1013.2
20260507064354 6 12 1.6 3.2 0.00 1.02 0.00 82 1013.2
20260507064054 6 12 0.0 3.2 0.00 1.02 0.00 82 1013.2
20260507063956 6 12 0.0 3.2 0.00 1.02 0.00 81 1013.2
20260507063754 6 12 1.6 3.2 0.00 1.02 0.00 81 1013.2
20260507063655 6 12 0.0 3.2 0.00 1.02 0.00 81 1013.1
20260507063556 6 12 1.6 3.2 0.00 1.02 0.00 81 1013.1
20260507063455 6 12 1.6 3.2 0.00 1.02 0.00 81 1013.1
20260507063354 6 12 1.6 1.6 0.00 1.02 0.00 81 1013.1
20260507063255 6 12 0.0 1.6 0.00 1.02 0.00 80 1013.1
20260507063154 6 12 0.0 1.6 0.00 1.02 0.00 80 1013.1
20260507063054 7 12 1.6 1.6 0.00 1.02 0.00 80 1013.1
20260507062955 7 12 0.0 1.6 0.00 1.02 0.00 80 1013.1
20260507062755 7 12 1.6 1.6 0.00 1.02 0.00 79 1013.1
20260507062554 7 12 0.0 1.6 0.00 1.02 0.00 79 1013.1
20260507062455 7 12 0.0 1.6 0.00 1.02 0.00 79 1013.1
20260507062354 7 12 1.6 1.6 0.00 1.02 0.00 79 1013.1
20260507062255 7 12 1.6 1.6 0.00 1.02 0.00 79 1013.1
20260507061954 7 12 0.0 0.0 0.00 1.02 0.00 78 1013.2
20260507061855 7 12 0.0 0.0 0.00 1.02 0.00 78 1013.1
20260507061754 7 12 0.0 0.0 0.00 1.02 0.00 78 1013.1
20260507061455 7 12 0.0 0.0 0.00 1.02 0.00 79 1013.1
20260507061255 7 12 0.0 0.0 0.00 1.02 0.00 79 1013.1
20260507061154 7 12 0.0 0.0 0.00 1.02 0.00 77 1013.1
20260507060755 7 12 0.0 0.0 0.00 1.02 0.00 79 1013.2
20260507060656 7 12 0.0 0.0 0.00 1.02 0.00 77 1013.2
20260507060557 7 12 0.0 0.0 0.00 1.02 0.00 77 1013.2
20260507060355 7 12 0.0 0.0 0.00 1.02 0.00 79 1013.2
20260507060255 7 12 0.0 0.0 0.00 1.02 0.00 79 1013.3
20260507060055 7 12 0.0 0.0 0.00 1.02 0.00 79 1013.3
20260507055954 7 12 0.0 0.0 0.00 1.09 0.00 78 1013.2
20260507055853 7 12 0.0 0.0 0.00 1.09 0.00 78 1013.3
20260507055754 7 12 0.0 0.0 0.00 1.09 0.00 78 1013.3
20260507055653 7 12 0.0 0.0 0.00 1.09 0.00 78 1013.2
20260507055554 7 12 0.0 0.0 0.00 1.09 0.00 78 1013.2
20260507055453 7 12 0.0 0.0 0.00 1.09 0.00 78 1013.3
20260507055354 7 12 0.0 0.0 0.00 1.09 0.00 78 1013.3
20260507055254 7 12 0.0 0.0 0.00 1.09 0.00 79 1013.4
20260507055154 7 12 0.0 0.0 0.00 1.09 0.00 79 1013.3
20260507055055 8 12 0.0 0.0 0.00 1.09 0.00 80 1013.4
20260507054953 8 12 0.0 0.0 0.00 1.09 0.00 79 1013.4
20260507054854 8 12 0.0 0.0 0.00 1.09 0.00 79 1013.4
20260507054754 8 12 0.0 0.0 0.00 1.09 0.00 79 1013.4
20260507054654 8 12 0.0 0.0 0.00 1.09 0.00 79 1013.5
20260507054555 8 12 0.0 0.0 0.00 1.09 0.00 78 1013.5
20260507054454 8 12 0.0 0.0 0.00 1.09 0.00 78 1013.5
20260507054354 8 12 0.0 0.0 0.00 1.09 0.00 80 1013.5
20260507054254 8 12 0.0 0.0 0.00 1.09 0.00 79 1013.5
20260507054155 8 12 0.0 0.0 0.00 1.09 0.00 79 1013.6
20260507053854 8 12 0.0 0.0 0.00 1.09 0.00 77 1013.5
20260507053554 8 12 0.0 0.0 0.00 1.09 0.00 77 1013.5
20260507053454 8 12 0.0 0.0 0.00 1.09 0.00 76 1013.6
20260507053354 8 12 0.0 0.0 0.00 1.09 0.00 76 1013.6
20260507053255 8 12 0.0 0.0 0.00 1.09 0.00 75 1013.7
20260507053055 8 12 0.0 0.0 0.00 1.09 0.00 76 1013.7
20260507052954 8 12 0.0 0.0 0.00 1.09 0.00 75 1013.7
20260507052854 8 12 0.0 0.0 0.00 1.09 0.00 77 1013.8
20260507052755 8 12 0.0 0.0 0.00 1.09 0.00 77 1013.8
20260507052554 8 12 0.0 0.0 0.00 1.09 0.00 77 1013.9
20260507052455 8 12 0.0 0.0 0.00 1.09 0.00 78 1013.9
20260507052353 8 12 0.0 0.0 0.00 1.09 0.00 78 1013.9
20260507052254 8 12 0.0 0.0 0.00 1.09 0.00 79 1013.9
20260507052154 8 12 0.0 0.0 0.00 1.09 0.00 78 1013.8
20260507052054 8 12 0.0 0.0 0.00 1.09 0.00 78 1013.9
20260507051954 8 12 0.0 0.0 0.00 1.09 0.00 78 1013.8
20260507051754 8 12 0.0 0.0 0.00 1.09 0.00 77 1013.9
20260507051654 8 12 0.0 0.0 0.00 1.09 0.00 78 1013.8
20260507051454 8 12 0.0 0.0 0.00 1.09 0.00 78 1013.9
20260507051354 8 12 0.0 0.0 0.00 1.09 0.00 78 1013.9
20260507051154 8 12 0.0 0.0 0.00 1.09 0.00 78 1013.9
20260507050954 8 12 0.0 0.0 0.00 1.09 0.00 77 1013.8
20260507050854 8 12 0.0 0.0 0.00 1.09 0.00 77 1013.9
20260507050754 8 12 0.0 0.0 0.00 1.09 0.00 76 1013.8
20260507050654 8 12 0.0 0.0 0.00 1.09 0.00 76 1013.8
20260507050554 8 12 0.0 0.0 0.00 1.09 0.00 76 1013.9
20260507050453 8 12 0.0 0.0 0.00 1.09 0.00 76 1013.9
20260507050355 8 12 0.0 0.0 0.00 1.09 0.00 76 1013.9
20260507050155 8 12 0.0 0.0 0.00 1.09 0.00 77 1013.9
20260507050054 8 12 0.0 0.0 0.00 1.09 0.00 78 1013.9
20260507045957 8 12 0.0 0.0 0.00 1.09 0.00 78 1013.9
20260507045856 8 12 0.0 0.0 0.00 1.12 0.00 78 1013.9
20260507045656 8 12 0.0 0.0 0.00 1.12 0.00 78 1013.9
20260507045456 8 12 0.0 0.0 0.00 1.12 0.00 78 1013.9
20260507045357 8 12 0.0 0.0 0.00 1.12 0.00 79 1013.9
20260507045256 8 12 0.0 0.0 0.00 1.12 0.00 78 1014.0
20260507045156 8 12 0.0 1.6 0.00 1.12 0.00 78 1013.9
20260507045057 8 12 0.0 1.6 0.00 1.12 0.00 78 1013.9
20260507044956 8 12 0.0 1.6 0.00 1.12 0.00 78 1013.8
20260507044857 8 12 0.0 1.6 0.00 1.12 0.00 77 1013.8
20260507044655 8 12 0.0 1.6 0.00 1.12 0.00 78 1013.8
20260507044556 8 12 0.0 1.6 0.00 1.12 0.00 78 1013.8
20260507044456 8 12 0.0 1.6 0.00 1.12 0.00 77 1013.8
20260507044357 8 12 0.0 1.6 0.00 1.12 0.00 78 1013.8
20260507044256 8 12 0.0 0.0 0.00 1.12 0.00 77 1013.8
20260507044056 8 12 0.0 0.0 0.00 1.12 0.00 77 1013.8
20260507043956 8 12 0.0 0.0 0.00 1.12 0.00 77 1013.8
20260507043856 8 12 0.0 0.0 0.00 1.12 0.00 77 1013.7
20260507043757 8 12 0.0 0.0 0.00 1.12 0.00 77 1013.7
20260507043656 8 12 0.0 0.0 0.00 1.12 0.00 77 1013.7
20260507043556 8 12 0.0 0.0 0.00 1.12 0.00 77 1013.7
20260507043456 8 12 0.0 0.0 0.00 1.12 0.00 78 1013.7
20260507043357 8 12 0.0 0.0 0.00 1.12 0.00 77 1013.7
20260507043256 8 12 0.0 0.0 0.00 1.12 0.00 77 1013.7
20260507043156 8 12 0.0 0.0 0.00 1.12 0.00 77 1013.7
20260507043057 8 12 0.0 0.0 0.00 1.12 0.00 77 1013.7
20260507042955 8 12 0.0 0.0 0.00 1.12 0.00 76 1013.8
20260507042855 8 12 0.0 1.6 0.00 1.12 0.00 76 1013.8
20260507042756 8 12 0.0 1.6 0.00 1.12 0.00 76 1013.7
20260507042656 8 12 0.0 1.6 0.00 1.12 0.00 75 1013.8
20260507042556 8 12 0.0 1.6 0.00 1.12 0.00 75 1013.8
20260507042456 8 12 0.0 1.6 0.00 1.12 0.00 77 1013.8
20260507042357 8 12 0.0 1.6 0.00 1.12 0.00 78 1013.8
20260507042256 8 12 0.0 1.6 0.00 1.12 0.00 78 1013.8
20260507042157 8 12 0.0 3.2 0.00 1.12 0.00 77 1013.8
20260507042056 8 12 0.0 3.2 0.00 1.12 0.00 77 1013.9
20260507041956 8 12 0.0 3.2 0.00 1.12 0.00 77 1013.9
20260507041856 8 12 0.0 3.2 0.00 1.12 0.00 76 1013.9
20260507041655 8 12 0.0 3.2 0.00 1.12 0.00 76 1013.8
20260507041456 8 12 0.0 3.2 0.00 1.12 0.00 74 1013.8
20260507041356 8 12 1.6 3.2 0.00 1.12 0.00 74 1013.7
20260507040855 8 12 0.0 1.6 0.00 1.12 0.00 75 1013.7
20260507040755 8 12 0.0 1.6 0.00 1.12 0.00 74 1013.7
20260507040657 8 12 0.0 1.6 0.00 1.12 0.00 75 1013.7
20260507040556 8 12 0.0 1.6 0.00 1.12 0.00 75 1013.8
20260507040357 8 12 0.0 1.6 0.00 1.12 0.00 75 1013.7
20260507040257 8 12 0.0 1.6 0.00 1.12 0.00 76 1013.8
20260507040156 8 12 0.0 1.6 0.00 1.12 0.00 76 1013.8
20260507040057 8 12 0.0 1.6 0.00 1.12 0.00 76 1013.7
20260507035857 8 12 1.6 1.6 0.00 1.12 1.12 76 1013.7
20260507035757 8 12 0.0 0.0 0.00 1.12 1.12 75 1013.8
20260507035657 8 12 0.0 0.0 0.00 1.12 1.12 75 1013.8
20260507035556 8 12 0.0 0.0 0.00 1.12 1.12 76 1013.8
20260507035456 8 12 0.0 1.6 0.00 1.12 1.12 74 1013.8
20260507035357 8 12 0.0 1.6 0.00 1.12 1.12 74 1013.7
20260507035257 9 12 0.0 1.6 0.00 1.12 1.12 73 1013.7
20260507035157 9 12 0.0 3.2 0.00 1.12 1.12 72 1013.6
20260507035058 9 12 0.0 3.2 0.00 1.12 1.12 73 1013.6
20260507034957 9 12 0.0 3.2 0.00 1.12 1.12 73 1013.6
20260507034856 9 12 0.0 3.2 0.00 1.12 1.12 73 1013.6
20260507034757 9 12 0.0 3.2 0.00 1.12 1.12 71 1013.6
20260507034656 9 12 1.6 3.2 0.00 1.12 1.12 70 1013.5
20260507034457 9 12 0.0 3.2 0.00 1.12 1.12 72 1013.5
20260507034357 9 12 0.0 3.2 0.00 1.12 1.12 70 1013.5
20260507034257 9 12 1.6 3.2 0.00 1.12 1.12 72 1013.5
20260507034157 9 12 0.0 1.6 0.00 1.12 1.12 72 1013.5
20260507034058 9 12 1.6 1.6 0.00 1.12 1.12 70 1013.5
20260507033756 9 12 0.0 1.6 0.00 1.12 1.12 70 1013.6
20260507033656 9 12 0.0 1.6 0.00 1.12 1.12 68 1013.6
20260507033557 9 12 1.6 1.6 0.00 1.12 1.12 69 1013.7
20260507033357 9 12 0.0 4.8 0.00 1.12 1.12 70 1013.7
20260507033256 9 12 0.0 4.8 0.00 1.12 1.12 71 1013.7
20260507033158 9 12 0.0 4.8 0.00 1.12 1.12 68 1013.7
20260507033056 9 12 0.0 4.8 0.00 1.12 1.12 70 1013.6
20260507032957 9 12 0.0 4.8 0.00 1.12 1.12 70 1013.5
20260507032858 9 12 0.0 4.8 0.00 1.12 1.12 68 1013.6
20260507032758 9 12 0.0 4.8 0.00 1.12 1.12 69 1013.5
20260507032658 9 12 0.0 4.8 0.00 1.12 1.12 68 1013.7
20260507032457 9 5 0.0 4.8 0.00 1.12 1.12 65 1013.6
20260507032157 9 24 0.0 4.8 0.00 1.12 1.12 64 1013.4
20260507032056 9 23 1.6 4.8 0.00 1.12 1.12 65 1013.3
20260507031957 9 22 0.0 4.8 0.00 1.12 1.12 67 1013.3
20260507031857 9 22 1.6 4.8 0.00 1.12 1.12 67 1013.3
20260507031757 9 23 3.2 3.2 0.00 1.12 1.12 71 1013.3
20260507031657 9 5 0.0 1.6 0.00 1.12 1.12 71 1013.4
20260507031558 9 5 1.6 1.6 0.00 1.12 1.12 71 1013.4
20260507031457 9 5 0.0 1.6 0.00 1.12 1.12 68 1013.4
20260507031357 9 5 0.0 1.6 0.00 1.12 1.12 69 1013.3
20260507031256 9 5 1.6 1.6 0.00 1.12 1.12 66 1013.3
20260507031057 9 5 0.0 1.6 0.00 1.12 1.12 69 1013.3
20260507030957 9 5 0.0 3.2 0.00 1.12 1.12 69 1013.2
20260507030857 9 5 0.0 3.2 0.00 1.12 1.12 70 1013.3
20260507030756 9 5 0.0 3.2 0.00 1.12 1.12 68 1013.2
20260507030656 9 5 0.0 3.2 0.00 1.12 1.12 68 1013.2
20260507030556 9 5 0.0 3.2 0.00 1.12 1.12 68 1013.2
20260507030457 9 5 0.0 3.2 0.00 1.12 1.12 69 1013.1
20260507030357 9 5 0.0 3.2 0.00 1.12 1.12 71 1013.1
20260507030257 9 5 0.0 3.2 0.00 1.12 1.12 70 1013.2
20260507030156 9 5 0.0 3.2 0.00 1.12 1.12 68 1013.3
20260507030057 9 5 3.2 3.2 0.00 1.12 1.12 69 1013.2
20260507025858 9 355 0.0 3.2 0.00 1.12 1.12 74 1013.1
20260507025757 9 355 0.0 3.2 0.00 1.12 1.12 74 1013.1
20260507025656 9 355 0.0 3.2 0.00 1.12 1.12 71 1013.1
20260507025558 9 360 1.6 1.6 0.00 1.12 1.12 74 1013.1
20260507025357 9 360 0.0 1.6 0.00 1.12 1.12 76 1013.2
20260507025158 9 360 0.0 1.6 0.00 1.12 1.12 76 1013.1
20260507025057 9 360 0.0 1.6 0.00 1.12 1.12 75 1013.0
20260507024957 9 360 0.0 1.6 0.00 1.12 1.12 74 1013.0
20260507024857 9 360 0.0 1.6 0.00 1.12 1.12 75 1013.1
20260507024656 9 360 0.0 1.6 0.00 1.12 1.12 75 1013.2
20260507024559 10 360 0.0 1.6 0.00 1.12 1.12 75 1013.2
20260507024458 10 360 1.6 1.6 0.00 1.12 1.12 74 1013.2
20260507024357 10 360 0.0 1.6 0.00 1.12 1.12 74 1013.2
20260507024257 10 360 0.0 1.6 0.00 1.12 1.12 74 1013.2
20260507024157 10 360 0.0 1.6 0.00 1.12 1.12 75 1013.2
20260507024056 10 360 0.0 1.6 0.00 1.12 1.12 74 1013.1
20260507023958 10 360 0.0 1.6 0.00 1.12 1.12 74 1013.1
20260507023858 10 360 0.0 3.2 0.00 1.12 1.12 72 1013.0
20260507023756 10 360 0.0 6.4 0.00 1.12 1.12 72 1013.0